Time,TemperatureF,DewpointF,PressureIn,WindDirection,WindDirectionDegrees,WindSpeedMPH,WindSpeedGustMPH,Humidity,HourlyPrecipIn,Conditions,Clouds,dailyrainin,SoftwareType,DateUTC
2013-02-04 00:00:00,26.0,20.1,0.00,ESE,110,2.0,2.0,78,0.00,,SKC,0.00,VWS V14.01,2013-02-04 05:00:00,
2013-02-04 00:01:00,26.0,20.1,0.00,ESE,110,0.0,0.0,78,0.00,,SKC,0.00,VWS V14.01,2013-02-04 05:01:00,
2013-02-04 00:06:00,25.9,20.0,0.00,ESE,104,2.0,2.0,78,0.00,,SKC,0.00,VWS V14.01,2013-02-04 05:06:00,
2013-02-04 00:11:00,25.8,19.9,0.00,ESE,104,2.0,2.0,78,0.00,,SKC,0.00,VWS V14.01,2013-02-04 05:11:00,
2013-02-04 00:16:00,25.6,19.7,0.00,ESE,104,0.0,1.0,78,0.00,,SKC,0.00,VWS V14.01,2013-02-04 05:16:00,
2013-02-04 00:21:00,25.6,19.7,0.00,ESE,104,1.0,2.0,78,0.00,,SKC,0.00,VWS V14.01,2013-02-04 05:21:00,
2013-02-04 00:26:00,25.4,19.8,0.00,ESE,103,0.0,0.0,79,0.00,,SKC,0.00,VWS V14.01,2013-02-04 05:26:00,
2013-02-04 00:31:00,25.3,19.7,0.00,ESE,103,0.0,0.0,79,0.00,,SKC,0.00,VWS V14.01,2013-02-04 05:31:00,
2013-02-04 00:36:00,25.1,19.2,0.00,ESE,103,0.0,1.0,78,0.00,,SKC,0.00,VWS V14.01,2013-02-04 05:36:00,
2013-02-04 00:41:00,24.9,19.3,0.00,ESE,103,0.0,0.0,79,0.00,,SKC,0.00,VWS V14.01,2013-02-04 05:41:00,
2013-02-04 00:46:00,24.7,19.1,0.00,ESE,104,0.0,0.0,79,0.00,,SKC,0.00,VWS V14.01,2013-02-04 05:46:00,
2013-02-04 00:51:00,24.6,19.0,0.00,ESE,104,0.0,0.0,79,0.00,,SKC,0.00,VWS V14.01,2013-02-04 05:51:00,
2013-02-04 00:56:00,24.4,19.1,0.00,ESE,104,2.0,2.0,80,0.00,,SKC,0.00,VWS V14.01,2013-02-04 05:56:00,
2013-02-04 01:01:00,24.3,19.0,0.00,ESE,103,0.0,0.0,80,0.00,,SKC,0.00,VWS V14.01,2013-02-04 06:01:00,
2013-02-04 01:06:00,24.2,18.9,0.00,ESE,104,0.0,0.0,80,0.00,,SKC,0.00,VWS V14.01,2013-02-04 06:06:00,
2013-02-04 01:11:00,24.1,18.8,0.00,ESE,103,0.0,0.0,80,0.00,,SKC,0.00,VWS V14.01,2013-02-04 06:11:00,
2013-02-04 01:16:00,24.0,18.7,0.00,ESE,104,1.0,1.0,80,0.00,,SKC,0.00,VWS V14.01,2013-02-04 06:16:00,
2013-02-04 01:21:00,23.9,18.6,0.00,ESE,104,0.0,0.0,80,0.00,,SKC,0.00,VWS V14.01,2013-02-04 06:21:00,
2013-02-04 01:26:00,23.9,18.6,0.00,ESE,104,1.0,1.0,80,0.00,,SKC,0.00,VWS V14.01,2013-02-04 06:26:00,
2013-02-04 01:31:00,23.9,18.9,0.00,ESE,104,0.0,0.0,81,0.00,,SKC,0.00,VWS V14.01,2013-02-04 06:31:00,
2013-02-04 01:36:00,23.8,18.5,0.00,ESE,103,0.0,0.0,80,0.00,,SKC,0.00,VWS V14.01,2013-02-04 06:36:00,
2013-02-04 01:41:00,23.7,18.7,0.00,ESE,104,0.0,1.0,81,0.00,,SKC,0.00,VWS V14.01,2013-02-04 06:41:00,
2013-02-04 01:46:00,23.7,18.7,0.00,ESE,103,0.0,0.0,81,0.00,,SKC,0.00,VWS V14.01,2013-02-04 06:46:00,
2013-02-04 01:51:00,23.6,18.6,0.00,ESE,104,1.0,1.0,81,0.00,,SKC,0.00,VWS V14.01,2013-02-04 06:51:00,
2013-02-04 01:56:00,23.6,18.6,0.00,ESE,104,0.0,0.0,81,0.00,,SKC,0.00,VWS V14.01,2013-02-04 06:56:00,
2013-02-04 02:01:00,23.6,18.4,0.00,ESE,103,2.0,3.0,80,0.00,,SKC,0.00,VWS V14.01,2013-02-04 07:01:00,
2013-02-04 02:06:00,23.5,18.5,0.00,ESE,104,0.0,0.0,81,0.00,,SKC,0.00,VWS V14.01,2013-02-04 07:06:00,
2013-02-04 02:11:00,23.4,18.4,0.00,ESE,103,1.0,1.0,81,0.00,,SKC,0.00,VWS V14.01,2013-02-04 07:11:00,
2013-02-04 02:16:00,23.2,18.2,0.00,ESE,104,0.0,0.0,81,0.00,,SKC,0.00,VWS V14.01,2013-02-04 07:16:00,
2013-02-04 02:21:00,22.9,18.0,0.00,ESE,104,0.0,0.0,81,0.00,,SKC,0.00,VWS V14.01,2013-02-04 07:21:00,
2013-02-04 02:26:00,22.7,18.0,0.00,ESE,104,0.0,0.0,82,0.00,,SKC,0.00,VWS V14.01,2013-02-04 07:26:00,
2013-02-04 02:31:00,22.5,17.9,0.00,ESE,104,0.0,0.0,82,0.00,,SKC,0.00,VWS V14.01,2013-02-04 07:31:00,
2013-02-04 02:36:00,22.4,17.8,0.00,ESE,103,0.0,0.0,82,0.00,,SKC,0.00,VWS V14.01,2013-02-04 07:36:00,
2013-02-04 02:41:00,22.3,17.6,0.00,ESE,103,0.0,0.0,82,0.00,,SKC,0.00,VWS V14.01,2013-02-04 07:41:00,
2013-02-04 02:46:00,22.1,17.5,0.00,ESE,103,0.0,0.0,82,0.00,,SKC,0.00,VWS V14.01,2013-02-04 07:46:00,
2013-02-04 02:51:00,22.1,17.7,0.00,ESE,104,1.0,1.0,83,0.00,,SKC,0.00,VWS V14.01,2013-02-04 07:51:00,
2013-02-04 02:56:00,22.1,17.7,0.00,ESE,103,0.0,0.0,83,0.00,,SKC,0.00,VWS V14.01,2013-02-04 07:56:00,
2013-02-04 03:01:00,22.0,17.6,0.00,ESE,104,0.0,0.0,83,0.00,,SKC,0.00,VWS V14.01,2013-02-04 08:01:00,
2013-02-04 03:06:00,21.9,17.5,0.00,ESE,104,0.0,0.0,83,0.00,,SKC,0.00,VWS V14.01,2013-02-04 08:06:00,
2013-02-04 03:11:00,21.8,17.4,0.00,ESE,104,0.0,0.0,83,0.00,,SKC,0.00,VWS V14.01,2013-02-04 08:11:00,
2013-02-04 03:16:00,21.6,17.2,0.00,ESE,104,0.0,0.0,83,0.00,,SKC,0.00,VWS V14.01,2013-02-04 08:16:00,
2013-02-04 03:21:00,21.4,17.3,0.00,ESE,104,0.0,0.0,84,0.00,,SKC,0.00,VWS V14.01,2013-02-04 08:21:00,
2013-02-04 03:26:00,21.3,17.5,0.00,ESE,103,0.0,0.0,85,0.00,,SKC,0.00,VWS V14.01,2013-02-04 08:26:00,
2013-02-04 03:31:00,21.2,17.4,0.00,ESE,104,0.0,0.0,85,0.00,,SKC,0.00,VWS V14.01,2013-02-04 08:31:00,
2013-02-04 03:36:00,21.1,17.3,0.00,ESE,103,0.0,0.0,85,0.00,,SKC,0.00,VWS V14.01,2013-02-04 08:36:00,
2013-02-04 03:40:00,21.1,17.3,0.00,ESE,103,0.0,0.0,85,0.00,,SKC,0.00,VWS V14.01,2013-02-04 08:40:00,
2013-02-04 03:45:00,21.1,17.3,0.00,ESE,104,0.0,0.0,85,0.00,,SKC,0.00,VWS V14.01,2013-02-04 08:45:00,
2013-02-04 03:50:00,21.1,17.3,0.00,ESE,104,0.0,0.0,85,0.00,,SKC,0.00,VWS V14.01,2013-02-04 08:50:00,
2013-02-04 03:55:00,21.0,17.2,0.00,ESE,104,0.0,0.0,85,0.00,,SKC,0.00,VWS V14.01,2013-02-04 08:55:00,
2013-02-04 04:00:00,20.9,17.1,0.00,ESE,104,0.0,0.0,85,0.00,,SKC,0.00,VWS V14.01,2013-02-04 09:00:00,
2013-02-04 04:05:00,20.8,17.0,0.00,ESE,103,0.0,0.0,85,0.00,,SKC,0.00,VWS V14.01,2013-02-04 09:05:00,
2013-02-04 04:10:00,20.7,17.2,0.00,ESE,104,0.0,0.0,86,0.00,,SKC,0.00,VWS V14.01,2013-02-04 09:10:00,
2013-02-04 04:15:00,20.7,17.2,0.00,ESE,103,0.0,0.0,86,0.00,,SKC,0.00,VWS V14.01,2013-02-04 09:15:00,
2013-02-04 04:20:00,20.7,17.2,0.00,ESE,104,0.0,0.0,86,0.00,,SKC,0.00,VWS V14.01,2013-02-04 09:20:00,
2013-02-04 04:25:00,20.7,17.2,0.00,ESE,103,0.0,0.0,86,0.00,,SKC,0.00,VWS V14.01,2013-02-04 09:25:00,
2013-02-04 04:30:00,20.7,17.2,0.00,ESE,104,0.0,0.0,86,0.00,,SKC,0.00,VWS V14.01,2013-02-04 09:30:00,
2013-02-04 04:35:00,20.8,17.3,0.00,ESE,104,0.0,0.0,86,0.00,,SKC,0.00,VWS V14.01,2013-02-04 09:35:00,
2013-02-04 04:40:00,20.8,17.3,0.00,ESE,104,0.0,2.0,86,0.00,,SKC,0.00,VWS V14.01,2013-02-04 09:40:00,
2013-02-04 04:45:00,20.9,17.4,0.00,ESE,103,0.0,0.0,86,0.00,,SKC,0.00,VWS V14.01,2013-02-04 09:45:00,
2013-02-04 04:50:00,20.7,17.2,0.00,ESE,104,0.0,1.0,86,0.00,,SKC,0.00,VWS V14.01,2013-02-04 09:50:00,
2013-02-04 04:55:00,20.6,17.1,0.00,ESE,103,0.0,0.0,86,0.00,,SKC,0.00,VWS V14.01,2013-02-04 09:55:00,
2013-02-04 05:00:00,20.5,17.0,0.00,ESE,104,0.0,0.0,86,0.00,,SKC,0.00,VWS V14.01,2013-02-04 10:00:00,
2013-02-04 05:05:00,20.5,17.2,0.00,ESE,104,0.0,0.0,87,0.00,,SKC,0.00,VWS V14.01,2013-02-04 10:05:00,
2013-02-04 05:10:00,20.4,16.9,0.00,ESE,103,0.0,0.0,86,0.00,,SKC,0.00,VWS V14.01,2013-02-04 10:10:00,
2013-02-04 05:15:00,20.4,17.2,0.00,ESE,103,0.0,0.0,87,0.00,,SKC,0.00,VWS V14.01,2013-02-04 10:15:00,
2013-02-04 05:20:00,20.4,17.2,0.00,ESE,104,0.0,0.0,87,0.00,,SKC,0.00,VWS V14.01,2013-02-04 10:20:00,
2013-02-04 05:25:00,20.4,17.2,0.00,ESE,103,0.0,0.0,87,0.00,,SKC,0.00,VWS V14.01,2013-02-04 10:25:00,
2013-02-04 05:30:00,20.6,17.4,0.00,ESE,104,1.0,1.0,87,0.00,,SKC,0.00,VWS V14.01,2013-02-04 10:30:00,
2013-02-04 05:35:00,20.8,17.5,0.00,ESE,104,1.0,2.0,87,0.00,,SKC,0.00,VWS V14.01,2013-02-04 10:35:00,
2013-02-04 05:40:00,21.1,17.8,0.00,ESE,104,0.0,0.0,87,0.00,,SKC,0.00,VWS V14.01,2013-02-04 10:40:00,
2013-02-04 05:45:00,21.1,17.8,0.00,ESE,103,0.0,0.0,87,0.00,,SKC,0.00,VWS V14.01,2013-02-04 10:45:00,
2013-02-04 05:50:00,21.1,17.8,0.00,ESE,103,0.0,0.0,87,0.00,,SKC,0.00,VWS V14.01,2013-02-04 10:50:00,
2013-02-04 05:55:00,21.1,17.8,0.00,ESE,104,0.0,0.0,87,0.00,,SKC,0.00,VWS V14.01,2013-02-04 10:55:00,
2013-02-04 06:00:00,21.1,17.8,0.00,ESE,104,0.0,0.0,87,0.00,,SKC,0.00,VWS V14.01,2013-02-04 11:00:00,
2013-02-04 06:05:00,21.1,17.8,0.00,ESE,104,0.0,0.0,87,0.00,,SKC,0.00,VWS V14.01,2013-02-04 11:05:00,
2013-02-04 06:10:00,21.1,17.6,0.00,ESE,104,0.0,0.0,86,0.00,,SKC,0.00,VWS V14.01,2013-02-04 11:10:00,
2013-02-04 06:15:00,21.1,17.8,0.00,ESE,104,0.0,0.0,87,0.00,,SKC,0.00,VWS V14.01,2013-02-04 11:15:00,
2013-02-04 06:20:00,21.1,17.8,0.00,ESE,104,0.0,0.0,87,0.00,,SKC,0.00,VWS V14.01,2013-02-04 11:20:00,
2013-02-04 06:25:00,21.2,17.9,0.00,ESE,104,0.0,0.0,87,0.00,,SKC,0.00,VWS V14.01,2013-02-04 11:25:00,
2013-02-04 06:30:00,21.3,18.0,0.00,ESE,104,0.0,0.0,87,0.00,,SKC,0.00,VWS V14.01,2013-02-04 11:30:00,
2013-02-04 06:35:00,21.5,18.2,0.00,ESE,103,0.0,0.0,87,0.00,,SKC,0.00,VWS V14.01,2013-02-04 11:35:00,
2013-02-04 06:40:00,21.5,18.0,0.00,ESE,104,0.0,0.0,86,0.00,,SKC,0.00,VWS V14.01,2013-02-04 11:40:00,
2013-02-04 06:45:00,21.6,18.1,0.00,ESE,104,0.0,0.0,86,0.00,,SKC,0.00,VWS V14.01,2013-02-04 11:45:00,
2013-02-04 06:50:00,21.7,18.2,0.00,ESE,104,0.0,0.0,86,0.00,,SKC,0.00,VWS V14.01,2013-02-04 11:50:00,
2013-02-04 06:55:00,21.6,18.1,0.00,ESE,104,0.0,0.0,86,0.00,,SKC,0.00,VWS V14.01,2013-02-04 11:55:00,
2013-02-04 07:00:00,21.7,18.2,0.00,ESE,104,0.0,0.0,86,0.00,,SKC,0.00,VWS V14.01,2013-02-04 12:00:00,
2013-02-04 07:05:00,21.7,18.2,0.00,ESE,104,0.0,0.0,86,0.00,,SKC,0.00,VWS V14.01,2013-02-04 12:05:00,
2013-02-04 07:10:00,21.7,18.2,0.00,ESE,104,0.0,0.0,86,0.00,,SKC,0.00,VWS V14.01,2013-02-04 12:10:00,
2013-02-04 07:15:00,21.8,18.3,0.00,ESE,103,0.0,0.0,86,0.00,,SKC,0.00,VWS V14.01,2013-02-04 12:15:00,
2013-02-04 07:20:00,21.8,18.3,0.00,ESE,104,0.0,0.0,86,0.00,,SKC,0.00,VWS V14.01,2013-02-04 12:20:00,
2013-02-04 07:25:00,21.9,18.4,0.00,ESE,104,0.0,0.0,86,0.00,,SKC,0.00,VWS V14.01,2013-02-04 12:25:00,
2013-02-04 07:30:00,22.0,18.5,0.00,ESE,104,0.0,0.0,86,0.00,,SKC,0.00,VWS V14.01,2013-02-04 12:30:00,
2013-02-04 07:35:00,22.1,18.6,0.00,ESE,104,0.0,0.0,86,0.00,,SKC,0.00,VWS V14.01,2013-02-04 12:35:00,
2013-02-04 07:40:00,22.2,18.7,0.00,ESE,104,0.0,0.0,86,0.00,,SKC,0.00,VWS V14.01,2013-02-04 12:40:00,
2013-02-04 07:45:00,22.2,18.7,0.00,ESE,104,0.0,0.0,86,0.00,,SKC,0.00,VWS V14.01,2013-02-04 12:45:00,
2013-02-04 07:50:00,22.3,18.8,0.00,ESE,103,0.0,0.0,86,0.00,,SKC,0.00,VWS V14.01,2013-02-04 12:50:00,
2013-02-04 07:55:00,22.4,18.9,0.00,ESE,103,0.0,0.0,86,0.00,,SKC,0.00,VWS V14.01,2013-02-04 12:55:00,
2013-02-04 08:00:00,22.3,18.8,0.00,ESE,103,0.0,0.0,86,0.00,,SKC,0.00,VWS V14.01,2013-02-04 13:00:00,
2013-02-04 08:05:00,22.4,18.9,0.00,ESE,103,0.0,0.0,86,0.00,,SKC,0.00,VWS V14.01,2013-02-04 13:05:00,
2013-02-04 08:10:00,22.4,18.9,0.00,ESE,104,0.0,0.0,86,0.00,,SKC,0.00,VWS V14.01,2013-02-04 13:10:00,
2013-02-04 08:15:00,22.6,19.0,0.00,ESE,103,0.0,0.0,86,0.00,,SKC,0.00,VWS V14.01,2013-02-04 13:15:00,
2013-02-04 08:20:00,22.8,19.2,0.00,ESE,104,0.0,0.0,86,0.00,,SKC,0.00,VWS V14.01,2013-02-04 13:20:00,
2013-02-04 08:25:00,23.1,19.5,0.00,ESE,103,0.0,0.0,86,0.00,,SKC,0.00,VWS V14.01,2013-02-04 13:25:00,
2013-02-04 08:30:00,23.3,19.5,0.00,ESE,103,0.0,0.0,85,0.00,,SKC,0.00,VWS V14.01,2013-02-04 13:30:00,
2013-02-04 08:35:00,23.4,19.3,0.00,ESE,104,0.0,1.0,84,0.00,,SKC,0.00,VWS V14.01,2013-02-04 13:35:00,
2013-02-04 08:40:00,23.6,19.5,0.00,ESE,104,2.0,2.0,84,0.00,,SKC,0.00,VWS V14.01,2013-02-04 13:40:00,
2013-02-04 08:45:00,23.9,19.8,0.00,ESE,104,1.0,1.0,84,0.00,,SKC,0.00,VWS V14.01,2013-02-04 13:45:00,
2013-02-04 08:50:00,24.2,20.1,0.00,ESE,104,0.0,0.0,84,0.00,,SKC,0.00,VWS V14.01,2013-02-04 13:50:00,
2013-02-04 08:55:00,24.4,20.0,0.00,ESE,104,0.0,0.0,83,0.00,,SKC,0.00,VWS V14.01,2013-02-04 13:55:00,
2013-02-04 09:00:00,24.7,20.0,0.00,ESE,103,0.0,1.0,82,0.00,,SKC,0.00,VWS V14.01,2013-02-04 14:00:00,
2013-02-04 09:05:00,24.9,20.2,0.00,ESE,104,0.0,0.0,82,0.00,,SKC,0.00,VWS V14.01,2013-02-04 14:05:00,
2013-02-04 09:10:00,25.1,20.4,0.00,ESE,104,0.0,0.0,82,0.00,,SKC,0.00,VWS V14.01,2013-02-04 14:10:00,
2013-02-04 09:15:00,25.3,20.3,0.00,ESE,104,0.0,0.0,81,0.00,,SKC,0.00,VWS V14.01,2013-02-04 14:15:00,
2013-02-04 09:20:00,25.6,20.3,0.00,ESE,104,0.0,0.0,80,0.00,,SKC,0.00,VWS V14.01,2013-02-04 14:20:00,
2013-02-04 09:25:00,25.8,20.5,0.00,ESE,103,0.0,0.0,80,0.00,,SKC,0.00,VWS V14.01,2013-02-04 14:25:00,
2013-02-04 09:30:00,26.0,20.4,0.00,ESE,104,0.0,0.0,79,0.00,,SKC,0.00,VWS V14.01,2013-02-04 14:30:00,
2013-02-04 09:35:00,26.3,21.3,0.00,ESE,104,1.0,2.0,81,0.00,,SKC,0.00,VWS V14.01,2013-02-04 14:35:00,
2013-02-04 09:40:00,26.3,21.3,0.00,ESE,104,0.0,0.0,81,0.00,,SKC,0.00,VWS V14.01,2013-02-04 14:40:00,
2013-02-04 09:45:00,26.5,21.5,0.00,ESE,104,0.0,1.0,81,0.00,,SKC,0.00,VWS V14.01,2013-02-04 14:45:00,
2013-02-04 09:50:00,26.7,21.4,0.00,ESE,104,0.0,0.0,80,0.00,,SKC,0.00,VWS V14.01,2013-02-04 14:50:00,
2013-02-04 09:55:00,27.0,22.0,0.00,ESE,104,0.0,0.0,81,0.00,,SKC,0.00,VWS V14.01,2013-02-04 14:55:00,
2013-02-04 10:00:00,27.4,22.0,0.00,ESE,104,0.0,3.0,80,0.00,,SKC,0.00,VWS V14.01,2013-02-04 15:00:00,
2013-02-04 10:05:00,27.7,22.4,0.00,ESE,103,1.0,3.0,80,0.00,,SKC,0.00,VWS V14.01,2013-02-04 15:05:00,
2013-02-04 10:10:00,28.0,22.3,0.00,ESE,104,2.0,2.0,79,0.00,,SKC,0.00,VWS V14.01,2013-02-04 15:10:00,
2013-02-04 10:15:00,28.1,21.8,0.00,ESE,104,0.0,0.0,77,0.00,,SKC,0.00,VWS V14.01,2013-02-04 15:15:00,
2013-02-04 10:20:00,28.3,22.3,0.00,ESE,104,0.0,0.0,78,0.00,,SKC,0.00,VWS V14.01,2013-02-04 15:20:00,
2013-02-04 10:25:00,28.7,22.7,0.00,ESE,104,0.0,0.0,78,0.00,,SKC,0.00,VWS V14.01,2013-02-04 15:25:00,
2013-02-04 10:30:00,29.2,23.2,0.00,ESE,103,0.0,0.0,78,0.00,,SKC,0.00,VWS V14.01,2013-02-04 15:30:00,
2013-02-04 10:35:00,29.8,23.2,0.00,ESE,103,1.0,1.0,76,0.00,,SKC,0.00,VWS V14.01,2013-02-04 15:35:00,
2013-02-04 10:39:00,30.1,23.5,0.00,ESE,103,0.0,2.0,76,0.00,,SKC,0.00,VWS V14.01,2013-02-04 15:39:00,
2013-02-04 10:44:00,30.6,23.6,0.00,ESE,103,0.0,0.0,75,0.00,,SKC,0.00,VWS V14.01,2013-02-04 15:44:00,
2013-02-04 10:49:00,31.2,24.2,0.00,ESE,104,1.0,1.0,75,0.00,,SKC,0.00,VWS V14.01,2013-02-04 15:49:00,
2013-02-04 10:54:00,31.8,24.1,0.00,ESE,104,0.0,0.0,73,0.00,,SKC,0.00,VWS V14.01,2013-02-04 15:54:00,
2013-02-04 10:59:00,32.4,24.4,0.00,ESE,104,0.0,0.0,72,0.00,,SKC,0.00,VWS V14.01,2013-02-04 15:59:00,
2013-02-04 11:04:00,33.3,25.3,0.00,ESE,104,2.0,2.0,72,0.00,,SKC,0.00,VWS V14.01,2013-02-04 16:04:00,
2013-02-04 11:09:00,34.3,25.5,0.00,ESE,104,0.0,0.0,70,0.00,,SKC,0.00,VWS V14.01,2013-02-04 16:09:00,
2013-02-04 11:14:00,35.3,26.5,0.00,ESE,104,0.0,1.0,70,0.00,,SKC,0.00,VWS V14.01,2013-02-04 16:14:00,
2013-02-04 11:19:00,36.7,26.1,0.00,ESE,104,0.0,1.0,65,0.00,,SKC,0.00,VWS V14.01,2013-02-04 16:19:00,
2013-02-04 11:24:00,38.0,25.8,0.00,ESE,103,2.0,2.0,61,0.00,,SKC,0.00,VWS V14.01,2013-02-04 16:24:00,
2013-02-04 11:29:00,39.2,24.8,0.00,South,190,2.0,7.0,56,0.00,,SKC,0.00,VWS V14.01,2013-02-04 16:29:00,
2013-02-04 11:34:00,40.2,25.3,0.00,NE,52,2.0,3.0,55,0.00,,SKC,0.00,VWS V14.01,2013-02-04 16:34:00,
2013-02-04 11:39:00,40.9,25.1,0.00,NE,47,0.0,0.0,53,0.00,,SKC,0.00,VWS V14.01,2013-02-04 16:39:00,
2013-02-04 11:44:00,41.2,24.9,0.00,SSW,200,1.0,3.0,52,0.00,,SKC,0.00,VWS V14.01,2013-02-04 16:44:00,
2013-02-04 11:49:00,41.6,24.8,0.00,NNW,342,3.0,3.0,51,0.00,,SKC,0.00,VWS V14.01,2013-02-04 16:49:00,
2013-02-04 11:54:00,42.0,25.2,0.00,North,5,1.0,1.0,51,0.00,,SKC,0.00,VWS V14.01,2013-02-04 16:54:00,
2013-02-04 11:59:00,42.5,25.2,0.00,WSW,244,2.0,4.0,50,0.00,,SKC,0.00,VWS V14.01,2013-02-04 16:59:00,
2013-02-04 12:04:00,42.9,25.6,0.00,NNE,14,3.0,3.0,50,0.00,,SKC,0.00,VWS V14.01,2013-02-04 17:04:00,
2013-02-04 12:09:00,43.5,26.1,0.00,NE,44,0.0,1.0,50,0.00,,SKC,0.00,VWS V14.01,2013-02-04 17:09:00,
2013-02-04 12:14:00,43.6,25.2,0.00,ESE,118,2.0,4.0,48,0.00,,SKC,0.00,VWS V14.01,2013-02-04 17:14:00,
2013-02-04 12:19:00,43.7,26.3,0.00,East,90,1.0,3.0,50,0.00,,SKC,0.00,VWS V14.01,2013-02-04 17:19:00,
2013-02-04 12:24:00,44.1,26.2,0.00,East,98,0.0,1.0,49,0.00,,SKC,0.00,VWS V14.01,2013-02-04 17:24:00,
2013-02-04 12:29:00,44.4,26.5,0.00,ESE,117,4.0,4.0,49,0.00,,SKC,0.00,VWS V14.01,2013-02-04 17:29:00,
2013-02-04 12:34:00,44.5,25.5,0.00,SSW,208,4.0,4.0,47,0.00,,SKC,0.00,VWS V14.01,2013-02-04 17:34:00,
2013-02-04 12:39:00,44.4,26.0,0.00,SSE,150,3.0,3.0,48,0.00,,SKC,0.00,VWS V14.01,2013-02-04 17:39:00,
2013-02-04 12:44:00,44.4,25.5,0.00,SSE,148,2.0,9.0,47,0.00,,SKC,0.00,VWS V14.01,2013-02-04 17:44:00,
2013-02-04 12:45:00,44.4,26.0,0.00,South,180,4.0,7.0,48,0.00,,SKC,0.00,VWS V14.01,2013-02-04 17:45:00,
2013-02-04 12:46:00,44.4,26.0,0.00,SSE,158,3.0,12.0,48,0.00,,SKC,0.00,VWS V14.01,2013-02-04 17:46:00,
2013-02-04 12:47:00,44.5,26.5,0.00,SE,135,5.0,7.0,49,0.00,,SKC,0.00,VWS V14.01,2013-02-04 17:47:00,
2013-02-04 12:48:00,44.5,26.0,0.00,SE,135,4.0,8.0,48,0.00,,SKC,0.00,VWS V14.01,2013-02-04 17:48:00,
2013-02-04 12:49:00,44.7,26.7,0.00,SE,135,4.0,12.0,49,0.00,,SKC,0.00,VWS V14.01,2013-02-04 17:49:00,
2013-02-04 12:50:00,44.8,27.3,0.00,ESE,112,4.0,7.0,50,0.00,,SKC,0.00,VWS V14.01,2013-02-04 17:50:00,
2013-02-04 12:56:00,45.2,26.7,30.10,ESE,112,4.0,4.0,48,0.00,,SKC,0.00,VWS V14.01,2013-02-04 17:56:00,
2013-02-04 12:57:00,45.2,26.7,30.10,ESE,112,4.0,4.0,48,0.00,,SKC,0.00,VWS V14.01,2013-02-04 17:57:00,
2013-02-04 12:58:00,44.8,27.3,0.00,ESE,112,4.0,7.0,50,0.00,,SKC,0.00,VWS V14.01,2013-02-04 17:58:00,
2013-02-04 12:59:00,45.4,26.4,30.10,ESE,105,5.0,10.0,47,0.00,,SKC,0.00,VWS V14.01,2013-02-04 17:59:00,
2013-02-04 13:00:00,45.4,26.4,30.10,ESE,107,4.0,6.0,47,0.00,,SKC,0.00,VWS V14.01,2013-02-04 18:00:00,
2013-02-04 13:01:00,45.5,26.5,30.09,East,96,0.0,5.0,47,0.00,,SKC,0.00,VWS V14.01,2013-02-04 18:01:00,
2013-02-04 13:02:00,45.5,26.5,30.10,SSE,165,2.0,9.0,47,0.00,,SKC,0.00,VWS V14.01,2013-02-04 18:02:00,
2013-02-04 13:03:00,45.5,26.5,30.10,East,96,1.0,2.0,47,0.00,,SKC,0.00,VWS V14.01,2013-02-04 18:03:00,
2013-02-04 13:04:00,45.6,26.5,30.09,SE,135,2.0,2.0,47,0.00,,SKC,0.00,VWS V14.01,2013-02-04 18:04:00,
2013-02-04 13:05:00,45.7,27.1,30.09,SSE,153,5.0,6.0,48,0.00,,SKC,0.00,VWS V14.01,2013-02-04 18:05:00,
2013-02-04 13:06:00,45.8,26.7,30.09,SE,132,3.0,5.0,47,0.00,,SKC,0.00,VWS V14.01,2013-02-04 18:06:00,
2013-02-04 13:07:00,45.8,26.7,30.09,ESE,111,5.0,5.0,47,0.00,,SKC,0.00,VWS V14.01,2013-02-04 18:07:00,
2013-02-04 13:08:00,45.8,26.7,30.09,SE,132,3.0,3.0,47,0.00,,SKC,0.00,VWS V14.01,2013-02-04 18:08:00,
2013-02-04 13:09:00,45.8,26.7,30.09,East,96,2.0,6.0,47,0.00,,SKC,0.00,VWS V14.01,2013-02-04 18:09:00,
2013-02-04 13:10:00,45.9,27.3,30.09,SE,138,3.0,4.0,48,0.00,,SKC,0.00,VWS V14.01,2013-02-04 18:10:00,
2013-02-04 13:11:00,45.9,27.3,30.09,SE,136,2.0,4.0,48,0.00,,SKC,0.00,VWS V14.01,2013-02-04 18:11:00,
2013-02-04 13:12:00,46.0,26.4,30.09,East,80,2.0,3.0,46,0.00,,SKC,0.00,VWS V14.01,2013-02-04 18:12:00,
2013-02-04 13:13:00,45.9,26.3,30.09,SE,136,0.0,2.0,46,0.00,,SKC,0.00,VWS V14.01,2013-02-04 18:13:00,
2013-02-04 13:14:00,46.1,26.5,30.09,SSE,148,2.0,3.0,46,0.00,,SKC,0.00,VWS V14.01,2013-02-04 18:14:00,
2013-02-04 13:15:00,46.1,26.5,30.09,SE,133,5.0,5.0,46,0.00,,SKC,0.00,VWS V14.01,2013-02-04 18:15:00,
2013-02-04 13:16:00,46.1,26.0,30.08,SSW,209,7.0,12.0,45,0.00,,SKC,0.00,VWS V14.01,2013-02-04 18:16:00,
2013-02-04 13:17:00,46.1,26.0,30.08,SE,133,0.0,7.0,45,0.00,,SKC,0.00,VWS V14.01,2013-02-04 18:17:00,
2013-02-04 13:18:00,46.1,26.0,30.08,SE,132,5.0,7.0,45,0.00,,SKC,0.00,VWS V14.01,2013-02-04 18:18:00,
2013-02-04 13:19:00,46.1,26.5,30.08,NE,56,3.0,7.0,46,0.00,,SKC,0.00,VWS V14.01,2013-02-04 18:19:00,
2013-02-04 13:20:00,46.1,26.5,30.08,ENE,77,2.0,3.0,46,0.00,,SKC,0.00,VWS V14.01,2013-02-04 18:20:00,
2013-02-04 13:21:00,46.1,27.0,30.08,ESE,109,4.0,4.0,47,0.00,,SKC,0.00,VWS V14.01,2013-02-04 18:21:00,
2013-02-04 13:22:00,46.2,27.1,30.08,SSE,152,0.0,5.0,47,0.00,,SKC,0.00,VWS V14.01,2013-02-04 18:22:00,
2013-02-04 13:23:00,46.1,27.0,30.08,ESE,109,3.0,4.0,47,0.00,,SKC,0.00,VWS V14.01,2013-02-04 18:23:00,
2013-02-04 13:24:00,46.4,26.8,30.08,SE,125,1.0,4.0,46,0.00,,SKC,0.00,VWS V14.01,2013-02-04 18:24:00,
2013-02-04 13:25:00,46.5,27.4,30.08,NE,35,4.0,7.0,47,0.00,,SKC,0.00,VWS V14.01,2013-02-04 18:25:00,
2013-02-04 13:26:00,46.6,26.4,30.08,NE,35,0.0,4.0,45,0.00,,SKC,0.00,VWS V14.01,2013-02-04 18:26:00,
2013-02-04 13:27:00,46.7,26.5,30.08,NNE,32,3.0,4.0,45,0.00,,SKC,0.00,VWS V14.01,2013-02-04 18:27:00,
2013-02-04 13:28:00,46.6,26.4,30.08,NE,34,2.0,2.0,45,0.00,,SKC,0.00,VWS V14.01,2013-02-04 18:28:00,
2013-02-04 13:29:00,46.8,27.1,30.08,NNE,15,5.0,5.0,46,0.00,,SKC,0.00,VWS V14.01,2013-02-04 18:29:00,
2013-02-04 13:30:00,46.9,26.7,30.08,NE,48,2.0,5.0,45,0.00,,SKC,0.00,VWS V14.01,2013-02-04 18:30:00,
2013-02-04 13:31:00,47.0,26.8,30.07,ENE,63,4.0,4.0,45,0.00,,SKC,0.00,VWS V14.01,2013-02-04 18:31:00,
2013-02-04 13:32:00,47.0,27.3,30.07,NE,44,5.0,5.0,46,0.00,,SKC,0.00,VWS V14.01,2013-02-04 18:32:00,
2013-02-04 13:33:00,47.0,26.8,30.07,ENE,63,3.0,4.0,45,0.00,,SKC,0.00,VWS V14.01,2013-02-04 18:33:00,
2013-02-04 13:34:00,47.1,26.9,30.07,ENE,57,7.0,7.0,45,0.00,,SKC,0.00,VWS V14.01,2013-02-04 18:34:00,
2013-02-04 13:35:00,47.0,26.8,30.07,NE,39,2.0,7.0,45,0.00,,SKC,0.00,VWS V14.01,2013-02-04 18:35:00,
2013-02-04 13:36:00,47.0,27.3,30.07,North,10,7.0,7.0,46,0.00,,SKC,0.00,VWS V14.01,2013-02-04 18:36:00,
2013-02-04 13:37:00,47.1,26.9,30.07,North,5,0.0,8.0,45,0.00,,SKC,0.00,VWS V14.01,2013-02-04 18:37:00,
2013-02-04 13:38:00,47.1,27.4,30.07,North,5,6.0,8.0,46,0.00,,SKC,0.00,VWS V14.01,2013-02-04 18:38:00,
2013-02-04 13:39:00,47.2,26.4,30.07,North,11,3.0,5.0,44,0.00,,SKC,0.00,VWS V14.01,2013-02-04 18:39:00,
2013-02-04 13:40:00,47.3,26.5,30.07,ENE,61,5.0,5.0,44,0.00,,SKC,0.00,VWS V14.01,2013-02-04 18:40:00,
2013-02-04 13:41:00,47.3,27.0,30.06,NE,36,2.0,5.0,45,0.00,,SKC,0.00,VWS V14.01,2013-02-04 18:41:00,
2013-02-04 13:42:00,47.3,27.0,30.06,NE,42,3.0,3.0,45,0.00,,SKC,0.00,VWS V14.01,2013-02-04 18:42:00,
2013-02-04 13:43:00,47.3,27.6,30.06,NE,36,3.0,3.0,46,0.00,,SKC,0.00,VWS V14.01,2013-02-04 18:43:00,
2013-02-04 13:44:00,47.5,26.7,30.06,NE,49,4.0,6.0,44,0.00,,SKC,0.00,VWS V14.01,2013-02-04 18:44:00,
2013-02-04 13:45:00,47.5,26.7,30.06,ENE,68,2.0,4.0,44,0.00,,SKC,0.00,VWS V14.01,2013-02-04 18:45:00,
2013-02-04 13:46:00,47.6,26.2,30.06,SSE,155,2.0,4.0,43,0.00,,SKC,0.00,VWS V14.01,2013-02-04 18:46:00,
2013-02-04 13:47:00,47.6,27.3,30.06,SSE,155,1.0,2.0,45,0.00,,SKC,0.00,VWS V14.01,2013-02-04 18:47:00,
2013-02-04 13:48:00,47.6,27.3,30.06,SSE,155,1.0,2.0,45,0.00,,SKC,0.00,VWS V14.01,2013-02-04 18:48:00,
2013-02-04 13:49:00,47.8,27.5,30.06,NE,46,2.0,7.0,45,0.00,,SKC,0.00,VWS V14.01,2013-02-04 18:49:00,
2013-02-04 13:50:00,47.8,27.0,30.06,SE,131,3.0,4.0,44,0.00,,SKC,0.00,VWS V14.01,2013-02-04 18:50:00,
2013-02-04 13:51:00,47.8,26.4,30.06,SE,128,1.0,3.0,43,0.00,,SKC,0.00,VWS V14.01,2013-02-04 18:51:00,
2013-02-04 13:52:00,47.9,27.0,30.06,SE,126,2.0,2.0,44,0.00,,SKC,0.00,VWS V14.01,2013-02-04 18:52:00,
2013-02-04 13:53:00,47.8,27.0,30.06,SE,128,1.0,1.0,44,0.00,,SKC,0.00,VWS V14.01,2013-02-04 18:53:00,
2013-02-04 13:54:00,47.9,27.0,30.06,North,360,3.0,7.0,44,0.00,,SKC,0.00,VWS V14.01,2013-02-04 18:54:00,
2013-02-04 13:55:00,47.8,26.4,30.07,ESE,118,10.0,10.0,43,0.00,,SKC,0.00,VWS V14.01,2013-02-04 18:55:00,
2013-02-04 13:56:00,47.8,27.0,30.06,SSW,195,2.0,10.0,44,0.00,,SKC,0.00,VWS V14.01,2013-02-04 18:56:00,
2013-02-04 13:57:00,47.7,26.3,30.06,South,188,6.0,6.0,43,0.00,,SKC,0.00,VWS V14.01,2013-02-04 18:57:00,
2013-02-04 13:58:00,47.8,27.0,30.06,SSW,195,2.0,2.0,44,0.00,,SKC,0.00,VWS V14.01,2013-02-04 18:58:00,
2013-02-04 13:59:00,47.6,26.2,30.06,South,182,0.0,3.0,43,0.00,,SKC,0.00,VWS V14.01,2013-02-04 18:59:00,
2013-02-04 14:00:00,47.5,26.7,30.06,ENE,64,7.0,8.0,44,0.00,,SKC,0.00,VWS V14.01,2013-02-04 19:00:00,
2013-02-04 14:01:00,47.5,26.1,30.06,NNE,15,0.0,7.0,43,0.00,,SKC,0.00,VWS V14.01,2013-02-04 19:01:00,
2013-02-04 14:02:00,47.6,26.8,30.06,NNE,19,5.0,7.0,44,0.00,,SKC,0.00,VWS V14.01,2013-02-04 19:02:00,
2013-02-04 14:03:00,47.5,26.1,30.06,NNE,15,0.0,0.0,43,0.00,,SKC,0.00,VWS V14.01,2013-02-04 19:03:00,
2013-02-04 14:04:00,47.6,26.8,30.06,South,171,5.0,6.0,44,0.00,,SKC,0.00,VWS V14.01,2013-02-04 19:04:00,
2013-02-04 14:05:00,47.6,26.2,30.06,NE,37,2.0,5.0,43,0.00,,SKC,0.00,VWS V14.01,2013-02-04 19:05:00,
2013-02-04 14:06:00,47.7,26.3,30.06,ENE,71,3.0,8.0,43,0.00,,SKC,0.00,VWS V14.01,2013-02-04 19:06:00,
2013-02-04 14:07:00,47.7,26.3,30.06,NE,35,3.0,4.0,43,0.00,,SKC,0.00,VWS V14.01,2013-02-04 19:07:00,
2013-02-04 14:08:00,47.7,26.3,30.06,ENE,71,3.0,3.0,43,0.00,,SKC,0.00,VWS V14.01,2013-02-04 19:08:00,
2013-02-04 14:09:00,47.6,26.2,30.06,SSE,159,6.0,6.0,43,0.00,,SKC,0.00,VWS V14.01,2013-02-04 19:09:00,
2013-02-04 14:10:00,47.6,26.2,30.06,ESE,111,2.0,7.0,43,0.00,,SKC,0.00,VWS V14.01,2013-02-04 19:10:00,
2013-02-04 14:11:00,47.6,26.8,30.06,NNE,25,1.0,5.0,44,0.00,,SKC,0.00,VWS V14.01,2013-02-04 19:11:00,
2013-02-04 14:12:00,47.7,26.9,30.06,NNW,329,1.0,4.0,44,0.00,,SKC,0.00,VWS V14.01,2013-02-04 19:12:00,
2013-02-04 14:13:00,47.6,26.8,30.06,NNE,26,0.0,1.0,44,0.00,,SKC,0.00,VWS V14.01,2013-02-04 19:13:00,
2013-02-04 14:14:00,47.8,26.4,30.06,NW,317,3.0,3.0,43,0.00,,SKC,0.00,VWS V14.01,2013-02-04 19:14:00,
2013-02-04 14:15:00,47.8,27.0,30.06,ENE,73,3.0,4.0,44,0.00,,SKC,0.00,VWS V14.01,2013-02-04 19:15:00,
2013-02-04 14:16:00,47.9,26.5,30.06,ENE,72,2.0,3.0,43,0.00,,SKC,0.00,VWS V14.01,2013-02-04 19:16:00,
2013-02-04 14:17:00,47.9,27.6,30.05,ENE,69,1.0,4.0,45,0.00,,SKC,0.00,VWS V14.01,2013-02-04 19:17:00,
2013-02-04 14:18:00,47.9,26.5,30.05,ENE,72,1.0,2.0,43,0.00,,SKC,0.00,VWS V14.01,2013-02-04 19:18:00,
2013-02-04 14:19:00,48.1,27.2,30.06,NNW,336,3.0,10.0,44,0.00,,SKC,0.00,VWS V14.01,2013-02-04 19:19:00,
2013-02-04 14:20:00,48.2,27.3,30.06,North,360,5.0,6.0,44,0.00,,SKC,0.00,VWS V14.01,2013-02-04 19:20:00,
2013-02-04 14:21:00,48.3,28.5,30.06,North,360,2.0,5.0,46,0.00,,SKC,0.00,VWS V14.01,2013-02-04 19:21:00,
2013-02-04 14:22:00,48.4,27.5,30.05,NE,50,2.0,4.0,44,0.00,,SKC,0.00,VWS V14.01,2013-02-04 19:22:00,
2013-02-04 14:23:00,48.3,28.5,30.05,North,360,2.0,2.0,46,0.00,,SKC,0.00,VWS V14.01,2013-02-04 19:23:00,
2013-02-04 14:24:00,48.5,27.6,30.06,North,11,5.0,5.0,44,0.00,,SKC,0.00,VWS V14.01,2013-02-04 19:24:00,
2013-02-04 14:25:00,48.4,27.0,30.06,NNE,17,2.0,8.0,43,0.00,,SKC,0.00,VWS V14.01,2013-02-04 19:25:00,
2013-02-04 14:26:00,48.3,27.4,30.06,NNE,15,2.0,3.0,44,0.00,,SKC,0.00,VWS V14.01,2013-02-04 19:26:00,
2013-02-04 14:27:00,48.4,27.5,30.05,NNE,12,7.0,7.0,44,0.00,,SKC,0.00,VWS V14.01,2013-02-04 19:27:00,
2013-02-04 14:28:00,48.3,27.4,30.05,NNE,15,1.0,2.0,44,0.00,,SKC,0.00,VWS V14.01,2013-02-04 19:28:00,
2013-02-04 14:29:00,48.2,27.3,30.05,NNE,19,4.0,4.0,44,0.00,,SKC,0.00,VWS V14.01,2013-02-04 19:29:00,
2013-02-04 14:30:00,48.1,26.7,30.05,ENE,59,2.0,10.0,43,0.00,,SKC,0.00,VWS V14.01,2013-02-04 19:30:00,
2013-02-04 14:31:00,48.1,27.2,30.05,North,355,9.0,9.0,44,0.00,,SKC,0.00,VWS V14.01,2013-02-04 19:31:00,
2013-02-04 14:32:00,48.1,27.2,30.05,NNE,22,6.0,9.0,44,0.00,,SKC,0.00,VWS V14.01,2013-02-04 19:32:00,
2013-02-04 14:33:00,48.1,27.2,30.05,North,355,9.0,9.0,44,0.00,,SKC,0.00,VWS V14.01,2013-02-04 19:33:00,
2013-02-04 14:34:00,48.0,27.1,30.05,North,360,4.0,6.0,44,0.00,,SKC,0.00,VWS V14.01,2013-02-04 19:34:00,
2013-02-04 14:35:00,48.0,27.1,30.05,NNE,24,5.0,6.0,44,0.00,,SKC,0.00,VWS V14.01,2013-02-04 19:35:00,
2013-02-04 14:36:00,47.9,26.5,30.05,NE,44,0.0,8.0,43,0.00,,SKC,0.00,VWS V14.01,2013-02-04 19:36:00,
2013-02-04 14:37:00,47.9,27.0,30.05,North,360,5.0,5.0,44,0.00,,SKC,0.00,VWS V14.01,2013-02-04 19:37:00,
2013-02-04 14:38:00,47.9,26.5,30.05,NE,44,0.0,0.0,43,0.00,,SKC,0.00,VWS V14.01,2013-02-04 19:38:00,
2013-02-04 14:39:00,47.8,27.0,30.05,ENE,72,1.0,4.0,44,0.00,,SKC,0.00,VWS V14.01,2013-02-04 19:39:00,
2013-02-04 14:40:00,47.7,26.9,30.05,NNE,24,4.0,5.0,44,0.00,,SKC,0.00,VWS V14.01,2013-02-04 19:40:00,
2013-02-04 14:41:00,47.7,26.9,30.05,NNE,24,0.0,4.0,44,0.00,,SKC,0.00,VWS V14.01,2013-02-04 19:41:00,
2013-02-04 14:42:00,47.7,26.9,30.05,NE,54,3.0,5.0,44,0.00,,SKC,0.00,VWS V14.01,2013-02-04 19:42:00,
2013-02-04 14:43:00,47.7,26.9,30.05,NNE,28,1.0,1.0,44,0.00,,SKC,0.00,VWS V14.01,2013-02-04 19:43:00,
2013-02-04 14:44:00,47.6,26.8,30.04,NE,49,5.0,5.0,44,0.00,,SKC,0.00,VWS V14.01,2013-02-04 19:44:00,
2013-02-04 14:45:00,47.6,26.8,30.04,ENE,68,2.0,5.0,44,0.00,,SKC,0.00,VWS V14.01,2013-02-04 19:45:00,
2013-02-04 14:46:00,47.6,26.8,30.04,ENE,65,1.0,4.0,44,0.00,,SKC,0.00,VWS V14.01,2013-02-04 19:46:00,
2013-02-04 14:47:00,47.6,27.3,30.04,ENE,65,2.0,4.0,45,0.00,,SKC,0.00,VWS V14.01,2013-02-04 19:47:00,
2013-02-04 14:48:00,47.6,26.8,30.04,ENE,65,1.0,1.0,44,0.00,,SKC,0.00,VWS V14.01,2013-02-04 19:48:00,
2013-02-04 14:49:00,47.6,26.8,30.05,NW,309,5.0,13.0,44,0.00,,SKC,0.00,VWS V14.01,2013-02-04 19:49:00,
2013-02-04 14:50:00,47.7,26.9,30.05,NW,324,3.0,5.0,44,0.00,,SKC,0.00,VWS V14.01,2013-02-04 19:50:00,
2013-02-04 14:51:00,47.6,26.8,30.05,NW,325,1.0,8.0,44,0.00,,SKC,0.00,VWS V14.01,2013-02-04 19:51:00,
2013-02-04 14:52:00,47.6,26.8,30.05,NW,325,0.0,1.0,44,0.00,,SKC,0.00,VWS V14.01,2013-02-04 19:52:00,
2013-02-04 14:53:00,47.6,26.8,30.05,NW,325,1.0,8.0,44,0.00,,SKC,0.00,VWS V14.01,2013-02-04 19:53:00,
2013-02-04 14:54:00,47.6,26.8,30.04,NNW,336,2.0,3.0,44,0.00,,SKC,0.00,VWS V14.01,2013-02-04 19:54:00,
2013-02-04 14:55:00,47.6,27.3,30.04,ENE,65,5.0,5.0,45,0.00,,SKC,0.00,VWS V14.01,2013-02-04 19:55:00,
2013-02-04 14:56:00,47.5,27.2,30.04,ENE,67,3.0,5.0,45,0.00,,SKC,0.00,VWS V14.01,2013-02-04 19:56:00,
2013-02-04 14:57:00,47.5,27.2,30.04,NNE,22,2.0,4.0,45,0.00,,SKC,0.00,VWS V14.01,2013-02-04 19:57:00,
2013-02-04 14:58:00,47.5,27.2,30.04,ENE,67,3.0,5.0,45,0.00,,SKC,0.00,VWS V14.01,2013-02-04 19:58:00,
2013-02-04 14:59:00,47.5,26.7,30.04,NNW,336,8.0,8.0,44,0.00,,SKC,0.00,VWS V14.01,2013-02-04 19:59:00,
2013-02-04 15:00:00,47.5,26.7,30.04,NNE,18,2.0,6.0,44,0.00,,SKC,0.00,VWS V14.01,2013-02-04 20:00:00,
2013-02-04 15:01:00,47.4,26.6,30.05,NNW,346,3.0,8.0,44,0.00,,SKC,0.00,VWS V14.01,2013-02-04 20:01:00,
2013-02-04 15:02:00,47.4,26.6,30.04,North,5,6.0,9.0,44,0.00,,SKC,0.00,VWS V14.01,2013-02-04 20:02:00,
2013-02-04 15:03:00,47.4,26.6,30.05,NNW,346,3.0,8.0,44,0.00,,SKC,0.00,VWS V14.01,2013-02-04 20:03:00,
2013-02-04 15:04:00,47.4,26.6,30.05,ENE,61,5.0,8.0,44,0.00,,SKC,0.00,VWS V14.01,2013-02-04 20:04:00,
2013-02-04 15:05:00,47.4,26.6,30.04,NW,325,1.0,7.0,44,0.00,,SKC,0.00,VWS V14.01,2013-02-04 20:05:00,
2013-02-04 15:06:00,47.4,27.1,30.04,North,11,3.0,3.0,45,0.00,,SKC,0.00,VWS V14.01,2013-02-04 20:06:00,
2013-02-04 15:07:00,47.4,27.1,30.04,NE,39,2.0,3.0,45,0.00,,SKC,0.00,VWS V14.01,2013-02-04 20:07:00,
2013-02-04 15:08:00,47.4,27.1,30.04,NNE,22,2.0,3.0,45,0.00,,SKC,0.00,VWS V14.01,2013-02-04 20:08:00,
2013-02-04 15:09:00,47.6,27.3,30.04,NE,37,0.0,3.0,45,0.00,,SKC,0.00,VWS V14.01,2013-02-04 20:09:00,
2013-02-04 15:10:00,47.6,26.8,30.04,NW,311,0.0,6.0,44,0.00,,SKC,0.00,VWS V14.01,2013-02-04 20:10:00,
2013-02-04 15:11:00,47.7,26.9,30.04,ENE,67,2.0,4.0,44,0.00,,SKC,0.00,VWS V14.01,2013-02-04 20:11:00,
2013-02-04 15:12:00,47.8,27.0,30.04,NE,55,1.0,7.0,44,0.00,,SKC,0.00,VWS V14.01,2013-02-04 20:12:00,
2013-02-04 15:13:00,47.7,26.9,30.04,ENE,67,2.0,4.0,44,0.00,,SKC,0.00,VWS V14.01,2013-02-04 20:13:00,
2013-02-04 15:14:00,47.8,27.0,30.04,NNW,331,1.0,5.0,44,0.00,,SKC,0.00,VWS V14.01,2013-02-04 20:14:00,
2013-02-04 15:15:00,47.8,26.4,30.04,NNW,330,5.0,10.0,43,0.00,,SKC,0.00,VWS V14.01,2013-02-04 20:15:00,
2013-02-04 15:16:00,47.8,26.4,30.04,North,360,2.0,5.0,43,0.00,,SKC,0.00,VWS V14.01,2013-02-04 20:16:00,
2013-02-04 15:17:00,47.9,27.0,30.04,North,360,1.0,2.0,44,0.00,,SKC,0.00,VWS V14.01,2013-02-04 20:17:00,
2013-02-04 15:18:00,47.8,26.4,30.04,North,360,2.0,5.0,43,0.00,,SKC,0.00,VWS V14.01,2013-02-04 20:18:00,
2013-02-04 15:19:00,47.9,27.6,30.04,NNE,26,1.0,2.0,45,0.00,,SKC,0.00,VWS V14.01,2013-02-04 20:19:00,
2013-02-04 15:20:00,48.0,27.1,30.04,NNE,33,3.0,3.0,44,0.00,,SKC,0.00,VWS V14.01,2013-02-04 20:20:00,
2013-02-04 15:21:00,48.1,27.2,30.04,NE,34,1.0,3.0,44,0.00,,SKC,0.00,VWS V14.01,2013-02-04 20:21:00,
2013-02-04 15:22:00,48.1,27.2,30.04,NE,34,0.0,1.0,44,0.00,,SKC,0.00,VWS V14.01,2013-02-04 20:22:00,
2013-02-04 15:23:00,48.1,27.2,30.04,NE,34,1.0,3.0,44,0.00,,SKC,0.00,VWS V14.01,2013-02-04 20:23:00,
2013-02-04 15:24:00,48.1,26.7,30.04,ESE,121,0.0,6.0,43,0.00,,SKC,0.00,VWS V14.01,2013-02-04 20:24:00,
2013-02-04 15:25:00,48.2,26.8,30.04,ESE,112,3.0,4.0,43,0.00,,SKC,0.00,VWS V14.01,2013-02-04 20:25:00,
2013-02-04 15:26:00,48.2,26.8,30.04,ENE,61,3.0,4.0,43,0.00,,SKC,0.00,VWS V14.01,2013-02-04 20:26:00,
2013-02-04 15:27:00,48.2,26.8,30.04,NE,45,5.0,5.0,43,0.00,,SKC,0.00,VWS V14.01,2013-02-04 20:27:00,
2013-02-04 15:28:00,48.2,26.8,30.04,ENE,61,3.0,4.0,43,0.00,,SKC,0.00,VWS V14.01,2013-02-04 20:28:00,
2013-02-04 15:29:00,48.3,27.4,30.04,NE,44,1.0,4.0,44,0.00,,SKC,0.00,VWS V14.01,2013-02-04 20:29:00,
2013-02-04 15:30:00,48.3,27.4,30.04,NNE,26,6.0,7.0,44,0.00,,SKC,0.00,VWS V14.01,2013-02-04 20:30:00,
2013-02-04 15:31:00,48.3,26.9,30.04,East,81,3.0,6.0,43,0.00,,SKC,0.00,VWS V14.01,2013-02-04 20:31:00,
2013-02-04 15:32:00,48.3,26.9,30.04,ENE,57,3.0,3.0,43,0.00,,SKC,0.00,VWS V14.01,2013-02-04 20:32:00,
2013-02-04 15:33:00,48.3,26.9,30.04,East,81,3.0,6.0,43,0.00,,SKC,0.00,VWS V14.01,2013-02-04 20:33:00,
2013-02-04 15:34:00,48.3,27.4,30.04,NE,47,5.0,5.0,44,0.00,,SKC,0.00,VWS V14.01,2013-02-04 20:34:00,
2013-02-04 15:35:00,48.3,26.9,30.04,NNE,17,0.0,8.0,43,0.00,,SKC,0.00,VWS V14.01,2013-02-04 20:35:00,
2013-02-04 15:36:00,48.3,26.9,30.04,ENE,75,0.0,2.0,43,0.00,,SKC,0.00,VWS V14.01,2013-02-04 20:36:00,
2013-02-04 15:37:00,48.2,26.8,30.04,ENE,75,3.0,3.0,43,0.00,,SKC,0.00,VWS V14.01,2013-02-04 20:37:00,
2013-02-04 15:38:00,48.3,26.9,30.04,ENE,75,2.0,2.0,43,0.00,,SKC,0.00,VWS V14.01,2013-02-04 20:38:00,
2013-02-04 15:39:00,48.1,27.2,30.04,East,99,2.0,7.0,44,0.00,,SKC,0.00,VWS V14.01,2013-02-04 20:39:00,
2013-02-04 15:40:00,48.1,27.2,30.04,East,84,3.0,3.0,44,0.00,,SKC,0.00,VWS V14.01,2013-02-04 20:40:00,
2013-02-04 15:41:00,48.1,27.2,30.03,ENE,65,2.0,4.0,44,0.00,,SKC,0.00,VWS V14.01,2013-02-04 20:41:00,
2013-02-04 15:42:00,48.0,27.1,30.04,ENE,63,3.0,4.0,44,0.00,,SKC,0.00,VWS V14.01,2013-02-04 20:42:00,
2013-02-04 15:43:00,48.1,27.2,30.03,ENE,65,2.0,4.0,44,0.00,,SKC,0.00,VWS V14.01,2013-02-04 20:43:00,
2013-02-04 15:44:00,47.9,26.5,30.04,ESE,115,2.0,7.0,43,0.00,,SKC,0.00,VWS V14.01,2013-02-04 20:44:00,
2013-02-04 15:45:00,47.9,27.0,30.04,ENE,71,0.0,5.0,44,0.00,,SKC,0.00,VWS V14.01,2013-02-04 20:45:00,
2013-02-04 15:46:00,47.8,27.0,30.04,SSE,149,3.0,3.0,44,0.00,,SKC,0.00,VWS V14.01,2013-02-04 20:46:00,
2013-02-04 15:47:00,47.8,27.0,30.04,SSE,151,1.0,3.0,44,0.00,,SKC,0.00,VWS V14.01,2013-02-04 20:47:00,
2013-02-04 15:48:00,47.8,27.0,30.04,SSE,149,3.0,3.0,44,0.00,,SKC,0.00,VWS V14.01,2013-02-04 20:48:00,
2013-02-04 15:49:00,47.7,28.0,30.04,SE,129,0.0,4.0,46,0.00,,SKC,0.00,VWS V14.01,2013-02-04 20:49:00,
2013-02-04 15:50:00,47.7,27.4,30.04,South,182,2.0,7.0,45,0.00,,SKC,0.00,VWS V14.01,2013-02-04 20:50:00,
2013-02-04 15:51:00,47.6,27.3,30.04,ESE,121,2.0,2.0,45,0.00,,SKC,0.00,VWS V14.01,2013-02-04 20:51:00,
2013-02-04 15:52:00,47.6,27.3,30.04,ESE,121,2.0,2.0,45,0.00,,SKC,0.00,VWS V14.01,2013-02-04 20:52:00,
2013-02-04 15:53:00,47.6,27.3,30.04,ESE,121,2.0,2.0,45,0.00,,SKC,0.00,VWS V14.01,2013-02-04 20:53:00,
2013-02-04 15:54:00,47.6,27.9,30.04,SSE,150,4.0,4.0,46,0.00,,SKC,0.00,VWS V14.01,2013-02-04 20:54:00,
2013-02-04 15:55:00,47.6,27.3,30.04,SSE,152,0.0,4.0,45,0.00,,SKC,0.00,VWS V14.01,2013-02-04 20:55:00,
2013-02-04 15:56:00,47.6,27.3,30.04,SSE,152,0.0,1.0,45,0.00,,SKC,0.00,VWS V14.01,2013-02-04 20:56:00,
2013-02-04 15:57:00,47.6,27.3,30.04,SSW,195,2.0,2.0,45,0.00,,SKC,0.00,VWS V14.01,2013-02-04 20:57:00,
2013-02-04 15:58:00,47.6,27.3,30.04,SSE,152,0.0,1.0,45,0.00,,SKC,0.00,VWS V14.01,2013-02-04 20:58:00,
2013-02-04 15:59:00,47.6,27.3,30.04,SE,136,3.0,4.0,45,0.00,,SKC,0.00,VWS V14.01,2013-02-04 20:59:00,
2013-02-04 16:00:00,47.5,27.2,30.04,SW,215,4.0,4.0,45,0.00,,SKC,0.00,VWS V14.01,2013-02-04 21:00:00,
2013-02-04 16:01:00,47.4,27.1,30.04,NNE,19,1.0,4.0,45,0.00,,SKC,0.00,VWS V14.01,2013-02-04 21:01:00,
2013-02-04 16:02:00,47.4,26.6,30.04,NNE,19,2.0,2.0,44,0.00,,SKC,0.00,VWS V14.01,2013-02-04 21:02:00,
2013-02-04 16:03:00,47.4,27.1,30.04,NNE,19,1.0,4.0,45,0.00,,SKC,0.00,VWS V14.01,2013-02-04 21:03:00,
2013-02-04 16:04:00,47.3,27.6,30.04,ENE,67,2.0,3.0,46,0.00,,SKC,0.00,VWS V14.01,2013-02-04 21:04:00,
2013-02-04 16:05:00,47.3,27.6,30.04,ENE,67,2.0,3.0,46,0.00,,SKC,0.00,VWS V14.01,2013-02-04 21:05:00,
2013-02-04 16:06:00,47.2,28.0,30.04,ENE,68,5.0,8.0,47,0.00,,SKC,0.00,VWS V14.01,2013-02-04 21:06:00,
2013-02-04 16:07:00,47.2,27.0,30.04,NNE,18,1.0,5.0,45,0.00,,SKC,0.00,VWS V14.01,2013-02-04 21:07:00,
2013-02-04 16:08:00,47.2,28.0,30.04,ENE,57,8.0,8.0,47,0.00,,SKC,0.00,VWS V14.01,2013-02-04 21:08:00,
2013-02-04 16:09:00,47.0,27.3,30.04,East,99,5.0,6.0,46,0.00,,SKC,0.00,VWS V14.01,2013-02-04 21:09:00,
2013-02-04 16:10:00,47.0,26.8,30.04,ESE,115,0.0,5.0,45,0.00,,SKC,0.00,VWS V14.01,2013-02-04 21:10:00,
2013-02-04 16:11:00,46.9,27.2,30.04,ESE,121,1.0,4.0,46,0.00,,SKC,0.00,VWS V14.01,2013-02-04 21:11:00,
2013-02-04 16:12:00,46.9,26.7,30.04,East,82,3.0,5.0,45,0.00,,SKC,0.00,VWS V14.01,2013-02-04 21:12:00,
2013-02-04 16:13:00,46.9,27.2,30.04,ESE,121,1.0,4.0,46,0.00,,SKC,0.00,VWS V14.01,2013-02-04 21:13:00,
2013-02-04 16:14:00,46.8,28.2,30.04,North,355,0.0,7.0,48,0.00,,SKC,0.00,VWS V14.01,2013-02-04 21:14:00,
2013-02-04 16:15:00,46.7,27.0,30.04,SSE,164,3.0,3.0,46,0.00,,SKC,0.00,VWS V14.01,2013-02-04 21:15:00,
2013-02-04 16:16:00,46.7,27.0,30.04,NNE,27,3.0,5.0,46,0.00,,SKC,0.00,VWS V14.01,2013-02-04 21:16:00,
2013-02-04 16:17:00,46.7,26.5,30.04,NNE,27,0.0,3.0,45,0.00,,SKC,0.00,VWS V14.01,2013-02-04 21:17:00,
2013-02-04 16:18:00,46.7,27.0,30.04,NNE,17,2.0,5.0,46,0.00,,SKC,0.00,VWS V14.01,2013-02-04 21:18:00,
2013-02-04 16:19:00,46.7,27.0,30.04,NE,45,3.0,4.0,46,0.00,,SKC,0.00,VWS V14.01,2013-02-04 21:19:00,
2013-02-04 16:20:00,46.7,27.6,30.04,NNE,28,3.0,7.0,47,0.00,,SKC,0.00,VWS V14.01,2013-02-04 21:20:00,
2013-02-04 16:21:00,46.7,27.0,30.05,North,5,6.0,8.0,46,0.00,,SKC,0.00,VWS V14.01,2013-02-04 21:21:00,
2013-02-04 16:22:00,46.7,27.0,30.05,ENE,59,4.0,6.0,46,0.00,,SKC,0.00,VWS V14.01,2013-02-04 21:22:00,
2013-02-04 16:23:00,46.7,27.0,30.05,North,355,8.0,8.0,46,0.00,,SKC,0.00,VWS V14.01,2013-02-04 21:23:00,
2013-02-04 16:24:00,46.7,27.0,30.05,NNE,13,7.0,7.0,46,0.00,,SKC,0.00,VWS V14.01,2013-02-04 21:24:00,
2013-02-04 16:25:00,46.7,26.5,30.05,East,101,5.0,7.0,45,0.00,,SKC,0.00,VWS V14.01,2013-02-04 21:25:00,
2013-02-04 16:26:00,46.7,27.0,30.05,NE,45,3.0,7.0,46,0.00,,SKC,0.00,VWS V14.01,2013-02-04 21:26:00,
2013-02-04 16:27:00,46.7,27.0,30.05,NE,46,3.0,7.0,46,0.00,,SKC,0.00,VWS V14.01,2013-02-04 21:27:00,
2013-02-04 16:28:00,46.7,27.0,30.05,East,88,2.0,3.0,46,0.00,,SKC,0.00,VWS V14.01,2013-02-04 21:28:00,
2013-02-04 16:29:00,46.7,27.0,30.05,ESE,117,2.0,2.0,46,0.00,,SKC,0.00,VWS V14.01,2013-02-04 21:29:00,
2013-02-04 16:30:00,46.7,27.0,30.05,ESE,115,1.0,2.0,46,0.00,,SKC,0.00,VWS V14.01,2013-02-04 21:30:00,
2013-02-04 16:31:00,46.7,26.5,30.05,SE,141,1.0,5.0,45,0.00,,SKC,0.00,VWS V14.01,2013-02-04 21:31:00,
2013-02-04 16:32:00,46.7,27.0,30.05,SE,134,5.0,5.0,46,0.00,,SKC,0.00,VWS V14.01,2013-02-04 21:32:00,
2013-02-04 16:33:00,46.7,26.5,30.05,NNE,30,3.0,4.0,45,0.00,,SKC,0.00,VWS V14.01,2013-02-04 21:33:00,
2013-02-04 16:34:00,46.7,26.5,30.05,NNW,341,3.0,7.0,45,0.00,,SKC,0.00,VWS V14.01,2013-02-04 21:34:00,
2013-02-04 16:35:00,46.7,26.5,30.05,ENE,72,2.0,3.0,45,0.00,,SKC,0.00,VWS V14.01,2013-02-04 21:35:00,
2013-02-04 16:36:00,46.7,26.5,30.05,ENE,74,1.0,2.0,45,0.00,,SKC,0.00,VWS V14.01,2013-02-04 21:36:00,
2013-02-04 16:37:00,46.7,26.5,30.05,ENE,74,1.0,2.0,45,0.00,,SKC,0.00,VWS V14.01,2013-02-04 21:37:00,
2013-02-04 16:38:00,46.7,26.5,30.05,SW,217,0.0,1.0,45,0.00,,SKC,0.00,VWS V14.01,2013-02-04 21:38:00,
2013-02-04 16:39:00,46.7,26.5,30.05,SW,217,1.0,1.0,45,0.00,,SKC,0.00,VWS V14.01,2013-02-04 21:39:00,
2013-02-04 16:40:00,46.8,26.6,30.05,SW,217,2.0,2.0,45,0.00,,SKC,0.00,VWS V14.01,2013-02-04 21:40:00,
2013-02-04 16:41:00,46.8,26.6,30.05,SW,216,1.0,2.0,45,0.00,,SKC,0.00,VWS V14.01,2013-02-04 21:41:00,
2013-02-04 16:42:00,46.8,26.6,30.05,SW,216,2.0,2.0,45,0.00,,SKC,0.00,VWS V14.01,2013-02-04 21:42:00,
2013-02-04 16:43:00,46.7,26.0,30.05,West,265,4.0,4.0,44,0.00,,SKC,0.00,VWS V14.01,2013-02-04 21:43:00,
2013-02-04 16:44:00,46.7,26.0,30.05,SSW,196,0.0,4.0,44,0.00,,SKC,0.00,VWS V14.01,2013-02-04 21:44:00,
2013-02-04 16:45:00,46.7,26.0,30.05,SSW,197,0.0,2.0,44,0.00,,SKC,0.00,VWS V14.01,2013-02-04 21:45:00,
2013-02-04 16:46:00,46.7,26.0,30.05,SSW,197,0.0,0.0,44,0.00,,SKC,0.00,VWS V14.01,2013-02-04 21:46:00,
2013-02-04 16:47:00,46.7,26.0,30.05,SSW,197,0.0,0.0,44,0.00,,SKC,0.00,VWS V14.01,2013-02-04 21:47:00,
2013-02-04 16:48:00,46.6,26.9,30.05,ENE,60,3.0,5.0,46,0.00,,SKC,0.00,VWS V14.01,2013-02-04 21:48:00,
2013-02-04 16:49:00,46.6,26.4,30.05,ENE,60,0.0,3.0,45,0.00,,SKC,0.00,VWS V14.01,2013-02-04 21:49:00,
2013-02-04 16:50:00,46.5,26.3,30.04,ENE,60,3.0,3.0,45,0.00,,SKC,0.00,VWS V14.01,2013-02-04 21:50:00,
2013-02-04 16:51:00,46.4,26.8,30.04,SE,133,4.0,4.0,46,0.00,,SKC,0.00,VWS V14.01,2013-02-04 21:51:00,
2013-02-04 16:52:00,46.5,26.9,30.04,SE,134,4.0,4.0,46,0.00,,SKC,0.00,VWS V14.01,2013-02-04 21:52:00,
2013-02-04 16:53:00,46.3,26.1,30.04,North,10,7.0,7.0,45,0.00,,SKC,0.00,VWS V14.01,2013-02-04 21:53:00,
2013-02-04 16:54:00,46.3,26.7,30.04,North,5,2.0,7.0,46,0.00,,SKC,0.00,VWS V14.01,2013-02-04 21:54:00,
2013-02-04 16:55:00,46.2,26.0,30.04,North,360,0.0,4.0,45,0.00,,SKC,0.00,VWS V14.01,2013-02-04 21:55:00,
2013-02-04 16:56:00,46.2,26.0,30.04,ENE,62,4.0,5.0,45,0.00,,SKC,0.00,VWS V14.01,2013-02-04 21:56:00,
2013-02-04 16:57:00,46.2,26.0,30.04,NE,51,4.0,5.0,45,0.00,,SKC,0.00,VWS V14.01,2013-02-04 21:57:00,
2013-02-04 16:58:00,46.1,26.0,30.04,ENE,62,1.0,3.0,45,0.00,,SKC,0.00,VWS V14.01,2013-02-04 21:58:00,
2013-02-04 16:59:00,46.1,26.5,30.04,NNE,14,2.0,5.0,46,0.00,,SKC,0.00,VWS V14.01,2013-02-04 21:59:00,
2013-02-04 17:00:00,46.0,25.9,30.04,NNE,14,1.0,2.0,45,0.00,,SKC,0.00,VWS V14.01,2013-02-04 22:00:00,
2013-02-04 17:01:00,46.0,25.9,30.04,NE,51,1.0,3.0,45,0.00,,SKC,0.00,VWS V14.01,2013-02-04 22:01:00,
2013-02-04 17:02:00,46.0,25.9,30.04,NE,51,2.0,3.0,45,0.00,,SKC,0.00,VWS V14.01,2013-02-04 22:02:00,
2013-02-04 17:03:00,45.9,25.8,30.04,East,98,2.0,2.0,45,0.00,,SKC,0.00,VWS V14.01,2013-02-04 22:03:00,
2013-02-04 17:04:00,45.9,26.3,30.04,NE,55,2.0,4.0,46,0.00,,SKC,0.00,VWS V14.01,2013-02-04 22:04:00,
2013-02-04 17:05:00,45.8,25.7,30.03,NNE,24,1.0,5.0,45,0.00,,SKC,0.00,VWS V14.01,2013-02-04 22:05:00,
2013-02-04 17:06:00,45.8,26.2,30.03,NNE,24,0.0,1.0,46,0.00,,SKC,0.00,VWS V14.01,2013-02-04 22:06:00,
2013-02-04 17:07:00,45.8,25.7,30.03,NNE,24,0.0,1.0,45,0.00,,SKC,0.00,VWS V14.01,2013-02-04 22:07:00,
2013-02-04 17:08:00,45.7,26.1,30.03,NE,46,4.0,4.0,46,0.00,,SKC,0.00,VWS V14.01,2013-02-04 22:08:00,
2013-02-04 17:09:00,45.6,25.5,30.03,NE,46,3.0,4.0,45,0.00,,SKC,0.00,VWS V14.01,2013-02-04 22:09:00,
2013-02-04 17:10:00,45.6,26.0,30.03,NE,46,0.0,4.0,46,0.00,,SKC,0.00,VWS V14.01,2013-02-04 22:10:00,
2013-02-04 17:11:00,45.6,26.0,30.03,NE,46,1.0,2.0,46,0.00,,SKC,0.00,VWS V14.01,2013-02-04 22:11:00,
2013-02-04 17:12:00,45.6,26.0,30.03,NE,46,2.0,2.0,46,0.00,,SKC,0.00,VWS V14.01,2013-02-04 22:12:00,
2013-02-04 17:13:00,45.5,26.5,30.03,NE,46,2.0,2.0,47,0.00,,SKC,0.00,VWS V14.01,2013-02-04 22:13:00,
2013-02-04 17:14:00,45.5,25.9,30.03,ENE,78,0.0,3.0,46,0.00,,SKC,0.00,VWS V14.01,2013-02-04 22:14:00,
2013-02-04 17:15:00,45.5,25.9,30.03,ENE,78,0.0,0.0,46,0.00,,SKC,0.00,VWS V14.01,2013-02-04 22:15:00,
2013-02-04 17:16:00,45.5,25.9,30.03,ENE,78,2.0,2.0,46,0.00,,SKC,0.00,VWS V14.01,2013-02-04 22:16:00,
2013-02-04 17:17:00,45.5,25.9,30.03,ENE,78,0.0,0.0,46,0.00,,SKC,0.00,VWS V14.01,2013-02-04 22:17:00,
2013-02-04 17:18:00,45.4,26.4,30.03,NE,42,1.0,1.0,47,0.00,,SKC,0.00,VWS V14.01,2013-02-04 22:18:00,
2013-02-04 17:19:00,45.4,25.9,30.03,NE,43,1.0,2.0,46,0.00,,SKC,0.00,VWS V14.01,2013-02-04 22:19:00,
2013-02-04 17:20:00,45.4,25.9,30.03,SE,130,2.0,4.0,46,0.00,,SKC,0.00,VWS V14.01,2013-02-04 22:20:00,
2013-02-04 17:21:00,45.3,25.8,30.03,SE,130,2.0,2.0,46,0.00,,SKC,0.00,VWS V14.01,2013-02-04 22:21:00,
2013-02-04 17:22:00,45.4,25.9,30.03,SE,130,0.0,2.0,46,0.00,,SKC,0.00,VWS V14.01,2013-02-04 22:22:00,
2013-02-04 17:23:00,45.3,25.8,30.03,SE,130,0.0,1.0,46,0.00,,SKC,0.00,VWS V14.01,2013-02-04 22:23:00,
2013-02-04 17:24:00,45.2,25.7,30.03,SE,130,0.0,0.0,46,0.00,,SKC,0.00,VWS V14.01,2013-02-04 22:24:00,
2013-02-04 17:25:00,45.2,25.7,30.03,SE,130,2.0,2.0,46,0.00,,SKC,0.00,VWS V14.01,2013-02-04 22:25:00,
2013-02-04 17:26:00,45.2,25.7,30.03,SE,130,0.0,2.0,46,0.00,,SKC,0.00,VWS V14.01,2013-02-04 22:26:00,
2013-02-04 17:27:00,45.2,25.7,30.03,SE,130,1.0,2.0,46,0.00,,SKC,0.00,VWS V14.01,2013-02-04 22:27:00,
2013-02-04 17:28:00,45.1,25.6,30.03,SE,130,0.0,3.0,46,0.00,,SKC,0.00,VWS V14.01,2013-02-04 22:28:00,
2013-02-04 17:29:00,45.1,25.6,30.03,SE,130,1.0,1.0,46,0.00,,SKC,0.00,VWS V14.01,2013-02-04 22:29:00,
2013-02-04 17:30:00,45.1,25.6,30.03,South,180,3.0,3.0,46,0.00,,SKC,0.00,VWS V14.01,2013-02-04 22:30:00,
2013-02-04 17:31:00,45.1,25.6,30.03,South,179,0.0,3.0,46,0.00,,SKC,0.00,VWS V14.01,2013-02-04 22:31:00,
2013-02-04 17:32:00,45.0,25.5,30.03,South,180,0.0,3.0,46,0.00,,SKC,0.00,VWS V14.01,2013-02-04 22:32:00,
2013-02-04 17:33:00,45.0,26.0,30.03,South,180,0.0,1.0,47,0.00,,SKC,0.00,VWS V14.01,2013-02-04 22:33:00,
2013-02-04 17:34:00,45.0,25.5,30.02,South,179,0.0,2.0,46,0.00,,SKC,0.00,VWS V14.01,2013-02-04 22:34:00,
2013-02-04 17:35:00,45.0,25.5,30.03,South,179,0.0,1.0,46,0.00,,SKC,0.00,VWS V14.01,2013-02-04 22:35:00,
2013-02-04 17:36:00,45.0,25.5,30.02,South,179,0.0,1.0,46,0.00,,SKC,0.00,VWS V14.01,2013-02-04 22:36:00,
2013-02-04 17:37:00,45.0,25.5,30.02,South,180,1.0,1.0,46,0.00,,SKC,0.00,VWS V14.01,2013-02-04 22:37:00,
2013-02-04 17:38:00,45.0,25.5,30.02,South,186,2.0,2.0,46,0.00,,SKC,0.00,VWS V14.01,2013-02-04 22:38:00,
2013-02-04 17:39:00,45.0,25.5,30.02,SSW,196,1.0,2.0,46,0.00,,SKC,0.00,VWS V14.01,2013-02-04 22:39:00,
2013-02-04 17:40:00,45.0,25.5,30.03,SSW,197,1.0,3.0,46,0.00,,SKC,0.00,VWS V14.01,2013-02-04 22:40:00,
2013-02-04 17:41:00,45.0,25.5,30.03,SSW,195,0.0,3.0,46,0.00,,SKC,0.00,VWS V14.01,2013-02-04 22:41:00,
2013-02-04 17:42:00,45.0,25.5,30.03,SSW,196,2.0,3.0,46,0.00,,SKC,0.00,VWS V14.01,2013-02-04 22:42:00,
2013-02-04 17:43:00,44.9,27.4,30.03,SSW,196,0.0,1.0,50,0.00,,SKC,0.00,VWS V14.01,2013-02-04 22:43:00,
2013-02-04 17:44:00,44.8,27.8,30.03,SSW,196,2.0,3.0,51,0.00,,SKC,0.00,VWS V14.01,2013-02-04 22:44:00,
2013-02-04 17:45:00,44.7,28.2,30.03,SSW,195,2.0,2.0,52,0.00,,SKC,0.00,VWS V14.01,2013-02-04 22:45:00,
2013-02-04 17:46:00,44.5,27.0,30.03,SSW,195,2.0,3.0,50,0.00,,SKC,0.00,VWS V14.01,2013-02-04 22:46:00,
2013-02-04 17:47:00,44.6,27.1,30.03,SSW,195,1.0,2.0,50,0.00,,SKC,0.00,VWS V14.01,2013-02-04 22:47:00,
2013-02-04 17:48:00,44.3,26.4,30.03,SSW,195,1.0,1.0,49,0.00,,SKC,0.00,VWS V14.01,2013-02-04 22:48:00,
2013-02-04 17:49:00,44.2,26.3,30.03,SSW,195,0.0,2.0,49,0.00,,SKC,0.00,VWS V14.01,2013-02-04 22:49:00,
2013-02-04 17:50:00,44.1,26.2,30.03,SSW,195,0.0,0.0,49,0.00,,SKC,0.00,VWS V14.01,2013-02-04 22:50:00,
2013-02-04 17:51:00,44.1,26.7,30.03,SSW,195,0.0,0.0,50,0.00,,SKC,0.00,VWS V14.01,2013-02-04 22:51:00,
2013-02-04 17:52:00,44.1,26.7,30.03,SSW,195,0.0,0.0,50,0.00,,SKC,0.00,VWS V14.01,2013-02-04 22:52:00,
2013-02-04 17:53:00,43.9,26.0,30.03,SSW,195,0.0,0.0,49,0.00,,SKC,0.00,VWS V14.01,2013-02-04 22:53:00,
2013-02-04 17:54:00,43.9,26.0,30.03,SSW,195,0.0,0.0,49,0.00,,SKC,0.00,VWS V14.01,2013-02-04 22:54:00,
2013-02-04 17:55:00,43.9,26.0,30.03,SSW,196,0.0,0.0,49,0.00,,SKC,0.00,VWS V14.01,2013-02-04 22:55:00,
2013-02-04 17:56:00,43.8,27.3,30.03,SSW,196,0.0,0.0,52,0.00,,SKC,0.00,VWS V14.01,2013-02-04 22:56:00,
2013-02-04 17:57:00,43.8,27.3,30.03,SSW,196,0.0,0.0,52,0.00,,SKC,0.00,VWS V14.01,2013-02-04 22:57:00,
2013-02-04 17:58:00,43.6,27.1,30.03,SSW,195,1.0,2.0,52,0.00,,SKC,0.00,VWS V14.01,2013-02-04 22:58:00,
2013-02-04 17:59:00,43.5,26.6,30.03,SSW,195,0.0,2.0,51,0.00,,SKC,0.00,VWS V14.01,2013-02-04 22:59:00,
2013-02-04 18:00:00,43.4,26.0,30.03,SSW,195,1.0,3.0,50,0.00,,SKC,0.00,VWS V14.01,2013-02-04 23:00:00,
2013-02-04 18:01:00,43.3,25.9,30.03,SSW,198,1.0,2.0,50,0.00,,SKC,0.00,VWS V14.01,2013-02-04 23:01:00,
2013-02-04 18:02:00,43.3,25.9,30.03,SSW,195,1.0,2.0,50,0.00,,SKC,0.00,VWS V14.01,2013-02-04 23:02:00,
2013-02-04 18:03:00,43.3,25.9,30.03,SSW,198,0.0,1.0,50,0.00,,SKC,0.00,VWS V14.01,2013-02-04 23:03:00,
2013-02-04 18:04:00,43.2,26.8,30.03,SSW,198,0.0,2.0,52,0.00,,SKC,0.00,VWS V14.01,2013-02-04 23:04:00,
2013-02-04 18:05:00,43.1,26.7,30.03,SSW,198,0.0,0.0,52,0.00,,SKC,0.00,VWS V14.01,2013-02-04 23:05:00,
2013-02-04 18:06:00,43.1,27.1,30.03,SSW,198,0.0,0.0,53,0.00,,SKC,0.00,VWS V14.01,2013-02-04 23:06:00,
2013-02-04 18:07:00,43.1,26.7,30.03,SSW,198,0.0,0.0,52,0.00,,SKC,0.00,VWS V14.01,2013-02-04 23:07:00,
2013-02-04 18:08:00,42.9,26.0,30.03,SSW,197,2.0,3.0,51,0.00,,SKC,0.00,VWS V14.01,2013-02-04 23:08:00,
2013-02-04 18:09:00,42.9,26.0,30.03,SSW,197,2.0,3.0,51,0.00,,SKC,0.00,VWS V14.01,2013-02-04 23:09:00,
2013-02-04 18:10:00,42.8,25.5,30.03,SSW,196,1.0,2.0,50,0.00,,SKC,0.00,VWS V14.01,2013-02-04 23:10:00,
2013-02-04 18:11:00,42.9,25.6,30.03,WSW,242,0.0,3.0,50,0.00,,SKC,0.00,VWS V14.01,2013-02-04 23:11:00,
2013-02-04 18:12:00,42.8,25.5,30.03,WSW,242,2.0,3.0,50,0.00,,SKC,0.00,VWS V14.01,2013-02-04 23:12:00,
2013-02-04 18:13:00,42.9,25.6,30.03,WSW,242,0.0,1.0,50,0.00,,SKC,0.00,VWS V14.01,2013-02-04 23:13:00,
2013-02-04 18:14:00,42.9,26.0,30.04,WSW,242,2.0,3.0,51,0.00,,SKC,0.00,VWS V14.01,2013-02-04 23:14:00,
2013-02-04 18:15:00,42.9,25.6,30.04,SSE,165,2.0,4.0,50,0.00,,SKC,0.00,VWS V14.01,2013-02-04 23:15:00,
2013-02-04 18:16:00,42.9,25.1,30.04,South,169,2.0,3.0,49,0.00,,SKC,0.00,VWS V14.01,2013-02-04 23:16:00,
2013-02-04 18:17:00,42.9,25.1,30.04,SSE,165,1.0,2.0,49,0.00,,SKC,0.00,VWS V14.01,2013-02-04 23:17:00,
2013-02-04 18:18:00,43.0,25.2,30.04,South,173,4.0,4.0,49,0.00,,SKC,0.00,VWS V14.01,2013-02-04 23:18:00,
2013-02-04 18:19:00,43.0,25.2,30.04,South,173,2.0,4.0,49,0.00,,SKC,0.00,VWS V14.01,2013-02-04 23:19:00,
2013-02-04 18:20:00,43.1,25.2,30.03,South,174,1.0,2.0,49,0.00,,SKC,0.00,VWS V14.01,2013-02-04 23:20:00,
2013-02-04 18:21:00,43.1,25.2,30.04,South,174,2.0,2.0,49,0.00,,SKC,0.00,VWS V14.01,2013-02-04 23:21:00,
2013-02-04 18:22:00,43.1,25.3,30.04,South,174,1.0,2.0,49,0.00,,SKC,0.00,VWS V14.01,2013-02-04 23:22:00,
2013-02-04 18:23:00,43.1,25.2,30.04,SE,134,0.0,2.0,49,0.00,,SKC,0.00,VWS V14.01,2013-02-04 23:23:00,
2013-02-04 18:24:00,43.2,24.9,30.04,SE,134,0.0,0.0,48,0.00,,SKC,0.00,VWS V14.01,2013-02-04 23:24:00,
2013-02-04 18:25:00,43.2,24.9,30.03,NNW,329,2.0,5.0,48,0.00,,SKC,0.00,VWS V14.01,2013-02-04 23:25:00,
2013-02-04 18:26:00,43.2,24.9,30.03,NNW,329,2.0,2.0,48,0.00,,SKC,0.00,VWS V14.01,2013-02-04 23:26:00,
2013-02-04 18:27:00,43.2,24.9,30.03,NNW,329,0.0,2.0,48,0.00,,SKC,0.00,VWS V14.01,2013-02-04 23:27:00,
2013-02-04 18:28:00,42.9,25.6,30.03,NNW,329,2.0,3.0,50,0.00,,SKC,0.00,VWS V14.01,2013-02-04 23:28:00,
2013-02-04 18:29:00,42.8,26.4,30.04,NNW,329,0.0,2.0,52,0.00,,SKC,0.00,VWS V14.01,2013-02-04 23:29:00,
2013-02-04 18:30:00,42.7,26.8,30.04,NNW,329,0.0,0.0,53,0.00,,SKC,0.00,VWS V14.01,2013-02-04 23:30:00,
2013-02-04 18:31:00,42.5,27.0,30.04,NNW,329,3.0,3.0,54,0.00,,SKC,0.00,VWS V14.01,2013-02-04 23:31:00,
2013-02-04 18:32:00,42.6,26.7,30.04,NNW,329,0.0,2.0,53,0.00,,SKC,0.00,VWS V14.01,2013-02-04 23:32:00,
2013-02-04 18:33:00,42.2,26.8,30.04,NNW,329,2.0,2.0,54,0.00,,SKC,0.00,VWS V14.01,2013-02-04 23:33:00,
2013-02-04 18:34:00,41.9,26.0,30.04,NNW,329,0.0,2.0,53,0.00,,SKC,0.00,VWS V14.01,2013-02-04 23:34:00,
2013-02-04 18:35:00,41.8,25.5,30.04,NNW,329,2.0,3.0,52,0.00,,SKC,0.00,VWS V14.01,2013-02-04 23:35:00,
2013-02-04 18:36:00,41.7,24.9,30.04,NNW,329,1.0,2.0,51,0.00,,SKC,0.00,VWS V14.01,2013-02-04 23:36:00,
2013-02-04 18:37:00,41.7,25.4,30.04,NNW,329,2.0,2.0,52,0.00,,SKC,0.00,VWS V14.01,2013-02-04 23:37:00,
2013-02-04 18:38:00,41.7,24.9,30.03,West,259,0.0,2.0,51,0.00,,SKC,0.00,VWS V14.01,2013-02-04 23:38:00,
2013-02-04 18:39:00,41.7,24.9,30.03,West,259,0.0,0.0,51,0.00,,SKC,0.00,VWS V14.01,2013-02-04 23:39:00,
2013-02-04 18:40:00,41.7,25.4,30.04,West,259,1.0,2.0,52,0.00,,SKC,0.00,VWS V14.01,2013-02-04 23:40:00,
2013-02-04 18:41:00,41.6,26.6,30.04,West,259,0.0,2.0,55,0.00,,SKC,0.00,VWS V14.01,2013-02-04 23:41:00,
2013-02-04 18:42:00,41.7,25.4,30.04,West,259,2.0,2.0,52,0.00,,SKC,0.00,VWS V14.01,2013-02-04 23:42:00,
2013-02-04 18:43:00,41.3,26.8,30.04,West,259,0.0,2.0,56,0.00,,SKC,0.00,VWS V14.01,2013-02-04 23:43:00,
2013-02-04 18:44:00,41.1,26.6,30.04,West,259,1.0,1.0,56,0.00,,SKC,0.00,VWS V14.01,2013-02-04 23:44:00,
2013-02-04 18:45:00,41.0,26.5,30.04,West,259,0.0,1.0,56,0.00,,SKC,0.00,VWS V14.01,2013-02-04 23:45:00,
2013-02-04 18:46:00,40.9,26.4,30.04,West,259,1.0,1.0,56,0.00,,SKC,0.00,VWS V14.01,2013-02-04 23:46:00,
2013-02-04 18:47:00,41.0,26.5,30.04,West,259,0.0,0.0,56,0.00,,SKC,0.00,VWS V14.01,2013-02-04 23:47:00,
2013-02-04 18:48:00,40.6,25.7,30.04,West,259,2.0,2.0,55,0.00,,SKC,0.00,VWS V14.01,2013-02-04 23:48:00,
2013-02-04 18:49:00,40.4,26.4,30.04,West,259,1.0,3.0,57,0.00,,SKC,0.00,VWS V14.01,2013-02-04 23:49:00,
2013-02-04 18:50:00,40.2,25.8,30.04,West,259,0.0,2.0,56,0.00,,SKC,0.00,VWS V14.01,2013-02-04 23:50:00,
2013-02-04 18:51:00,40.1,25.2,30.04,West,259,0.0,1.0,55,0.00,,SKC,0.00,VWS V14.01,2013-02-04 23:51:00,
2013-02-04 18:52:00,40.2,25.3,30.04,West,259,0.0,0.0,55,0.00,,SKC,0.00,VWS V14.01,2013-02-04 23:52:00,
2013-02-04 18:53:00,39.9,25.9,30.04,West,259,0.0,1.0,57,0.00,,SKC,0.00,VWS V14.01,2013-02-04 23:53:00,
2013-02-04 18:54:00,39.8,25.8,30.04,West,259,0.0,0.0,57,0.00,,SKC,0.00,VWS V14.01,2013-02-04 23:54:00,
2013-02-04 18:55:00,39.7,26.1,30.04,West,259,1.0,1.0,58,0.00,,SKC,0.00,VWS V14.01,2013-02-04 23:55:00,
2013-02-04 18:56:00,39.5,26.0,30.04,West,259,0.0,1.0,58,0.00,,SKC,0.00,VWS V14.01,2013-02-04 23:56:00,
2013-02-04 18:57:00,39.6,26.1,30.04,West,259,1.0,1.0,58,0.00,,SKC,0.00,VWS V14.01,2013-02-04 23:57:00,
2013-02-04 18:58:00,39.2,25.7,30.04,West,259,0.0,2.0,58,0.00,,SKC,0.00,VWS V14.01,2013-02-04 23:58:00,
2013-02-04 18:59:00,39.1,25.6,30.04,West,259,0.0,2.0,58,0.00,,SKC,0.00,VWS V14.01,2013-02-04 23:59:00,
2013-02-04 19:00:00,39.0,25.5,30.04,West,259,2.0,2.0,58,0.00,,SKC,0.00,VWS V14.01,2013-02-05 00:00:00,
2013-02-04 19:01:00,38.9,25.4,30.04,West,259,2.0,3.0,58,0.00,,SKC,0.00,VWS V14.01,2013-02-05 00:01:00,
2013-02-04 19:02:00,38.9,25.4,30.04,West,259,1.0,2.0,58,0.00,,SKC,0.00,VWS V14.01,2013-02-05 00:02:00,
2013-02-04 19:03:00,38.8,25.3,30.04,West,259,0.0,0.0,58,0.00,,SKC,0.00,VWS V14.01,2013-02-05 00:03:00,
2013-02-04 19:04:00,38.8,25.7,30.04,West,259,1.0,2.0,59,0.00,,SKC,0.00,VWS V14.01,2013-02-05 00:04:00,
2013-02-04 19:05:00,38.7,25.6,30.04,West,259,0.0,1.0,59,0.00,,SKC,0.00,VWS V14.01,2013-02-05 00:05:00,
2013-02-04 19:06:00,38.6,25.9,30.04,West,259,0.0,0.0,60,0.00,,SKC,0.00,VWS V14.01,2013-02-05 00:06:00,
2013-02-04 19:07:00,38.7,26.0,30.04,West,259,0.0,0.0,60,0.00,,SKC,0.00,VWS V14.01,2013-02-05 00:07:00,
2013-02-04 19:08:00,38.5,25.4,30.05,West,259,0.0,1.0,59,0.00,,SKC,0.00,VWS V14.01,2013-02-05 00:08:00,
2013-02-04 19:09:00,38.5,25.8,30.05,West,259,0.0,0.0,60,0.00,,SKC,0.00,VWS V14.01,2013-02-05 00:09:00,
2013-02-04 19:10:00,38.4,25.7,30.05,West,259,0.0,1.0,60,0.00,,SKC,0.00,VWS V14.01,2013-02-05 00:10:00,
2013-02-04 19:11:00,38.3,25.6,30.05,West,259,1.0,1.0,60,0.00,,SKC,0.00,VWS V14.01,2013-02-05 00:11:00,
2013-02-04 19:12:00,38.4,25.7,30.05,West,259,0.0,1.0,60,0.00,,SKC,0.00,VWS V14.01,2013-02-05 00:12:00,
2013-02-04 19:13:00,38.2,26.0,30.05,West,259,1.0,2.0,61,0.00,,SKC,0.00,VWS V14.01,2013-02-05 00:13:00,
2013-02-04 19:14:00,38.1,25.1,30.05,West,259,1.0,1.0,59,0.00,,SKC,0.00,VWS V14.01,2013-02-05 00:14:00,
2013-02-04 19:15:00,38.1,25.1,30.05,West,259,0.0,1.0,59,0.00,,SKC,0.00,VWS V14.01,2013-02-05 00:15:00,
2013-02-04 19:16:00,38.0,25.4,30.05,West,259,0.0,1.0,60,0.00,,SKC,0.00,VWS V14.01,2013-02-05 00:16:00,
2013-02-04 19:17:00,38.1,25.1,30.05,West,259,0.0,1.0,59,0.00,,SKC,0.00,VWS V14.01,2013-02-05 00:17:00,
2013-02-04 19:18:00,37.9,25.7,30.05,West,259,0.0,1.0,61,0.00,,SKC,0.00,VWS V14.01,2013-02-05 00:18:00,
2013-02-04 19:19:00,37.9,25.3,30.05,West,259,0.0,1.0,60,0.00,,SKC,0.00,VWS V14.01,2013-02-05 00:19:00,
2013-02-04 19:20:00,37.9,25.3,30.05,West,259,1.0,3.0,60,0.00,,SKC,0.00,VWS V14.01,2013-02-05 00:20:00,
2013-02-04 19:21:00,37.9,25.3,30.05,West,259,1.0,2.0,60,0.00,,SKC,0.00,VWS V14.01,2013-02-05 00:21:00,
2013-02-04 19:22:00,37.9,24.9,30.05,West,259,1.0,2.0,59,0.00,,SKC,0.00,VWS V14.01,2013-02-05 00:22:00,
2013-02-04 19:23:00,38.0,25.8,30.05,West,259,0.0,0.0,61,0.00,,SKC,0.00,VWS V14.01,2013-02-05 00:23:00,
2013-02-04 19:24:00,38.0,25.0,30.05,West,259,1.0,1.0,59,0.00,,SKC,0.00,VWS V14.01,2013-02-05 00:24:00,
2013-02-04 19:25:00,38.0,25.0,30.05,West,259,0.0,2.0,59,0.00,,SKC,0.00,VWS V14.01,2013-02-05 00:25:00,
2013-02-04 19:26:00,38.1,25.1,30.05,West,259,0.0,0.0,59,0.00,,SKC,0.00,VWS V14.01,2013-02-05 00:26:00,
2013-02-04 19:27:00,38.1,25.1,30.05,West,259,0.0,0.0,59,0.00,,SKC,0.00,VWS V14.01,2013-02-05 00:27:00,
2013-02-04 19:28:00,38.2,25.1,30.05,West,259,1.0,1.0,59,0.00,,SKC,0.00,VWS V14.01,2013-02-05 00:28:00,
2013-02-04 19:29:00,38.2,25.1,30.05,West,259,1.0,2.0,59,0.00,,SKC,0.00,VWS V14.01,2013-02-05 00:29:00,
2013-02-04 19:30:00,38.2,25.5,30.05,West,259,2.0,2.0,60,0.00,,SKC,0.00,VWS V14.01,2013-02-05 00:30:00,
2013-02-04 19:31:00,38.3,25.2,30.04,West,259,1.0,2.0,59,0.00,,SKC,0.00,VWS V14.01,2013-02-05 00:31:00,
2013-02-04 19:32:00,38.2,25.1,30.04,West,259,0.0,2.0,59,0.00,,SKC,0.00,VWS V14.01,2013-02-05 00:32:00,
2013-02-04 19:33:00,38.2,25.5,30.05,West,259,1.0,2.0,60,0.00,,SKC,0.00,VWS V14.01,2013-02-05 00:33:00,
2013-02-04 19:34:00,38.3,24.8,30.04,WSW,247,0.0,3.0,58,0.00,,SKC,0.00,VWS V14.01,2013-02-05 00:34:00,
2013-02-04 19:35:00,38.3,24.8,30.04,WSW,247,1.0,2.0,58,0.00,,SKC,0.00,VWS V14.01,2013-02-05 00:35:00,
2013-02-04 19:36:00,38.6,24.7,30.04,SW,217,0.0,4.0,57,0.00,,SKC,0.00,VWS V14.01,2013-02-05 00:36:00,
2013-02-04 19:37:00,38.4,24.5,30.04,SW,217,4.0,4.0,57,0.00,,SKC,0.00,VWS V14.01,2013-02-05 00:37:00,
2013-02-04 19:38:00,38.8,26.1,30.04,SW,219,1.0,1.0,60,0.00,,SKC,0.00,VWS V14.01,2013-02-05 00:38:00,
2013-02-04 19:39:00,38.6,25.9,30.04,SW,219,1.0,2.0,60,0.00,,SKC,0.00,VWS V14.01,2013-02-05 00:39:00,
2013-02-04 19:40:00,38.5,25.8,30.04,SW,219,0.0,1.0,60,0.00,,SKC,0.00,VWS V14.01,2013-02-05 00:40:00,
2013-02-04 19:41:00,38.4,26.1,30.05,SW,219,0.0,1.0,61,0.00,,SKC,0.00,VWS V14.01,2013-02-05 00:41:00,
2013-02-04 19:42:00,38.5,25.8,30.05,SW,219,1.0,1.0,60,0.00,,SKC,0.00,VWS V14.01,2013-02-05 00:42:00,
2013-02-04 19:43:00,38.2,25.5,30.05,SW,219,1.0,1.0,60,0.00,,SKC,0.00,VWS V14.01,2013-02-05 00:43:00,
2013-02-04 19:44:00,38.0,26.1,30.04,SW,219,0.0,1.0,62,0.00,,SKC,0.00,VWS V14.01,2013-02-05 00:44:00,
2013-02-04 19:45:00,37.9,26.4,30.04,SW,219,0.0,0.0,63,0.00,,SKC,0.00,VWS V14.01,2013-02-05 00:45:00,
2013-02-04 19:46:00,37.7,26.2,30.04,SW,219,0.0,0.0,63,0.00,,SKC,0.00,VWS V14.01,2013-02-05 00:46:00,
2013-02-04 19:47:00,37.8,26.4,30.04,SW,219,0.0,0.0,63,0.00,,SKC,0.00,VWS V14.01,2013-02-05 00:47:00,
2013-02-04 19:48:00,37.5,25.3,30.04,SW,219,2.0,3.0,61,0.00,,SKC,0.00,VWS V14.01,2013-02-05 00:48:00,
2013-02-04 19:51:00,37.4,26.0,30.04,SW,219,1.0,2.0,63,0.00,,SKC,0.00,VWS V14.01,2013-02-05 00:51:00,
2013-02-04 19:52:00,37.2,25.8,30.05,SW,219,1.0,1.0,63,0.00,,SKC,0.00,VWS V14.01,2013-02-05 00:52:00,
2013-02-04 19:53:00,37.1,25.7,30.05,SW,219,2.0,2.0,63,0.00,,SKC,0.00,VWS V14.01,2013-02-05 00:53:00,
2013-02-04 19:54:00,36.9,25.5,30.04,SW,219,1.0,2.0,63,0.00,,SKC,0.00,VWS V14.01,2013-02-05 00:54:00,
2013-02-04 19:55:00,36.8,25.4,30.04,SW,219,2.0,2.0,63,0.00,,SKC,0.00,VWS V14.01,2013-02-05 00:55:00,
2013-02-04 19:56:00,36.8,25.0,30.04,SW,219,1.0,3.0,62,0.00,,SKC,0.00,VWS V14.01,2013-02-05 00:56:00,
2013-02-04 19:57:00,36.8,24.2,30.04,SW,219,0.0,2.0,60,0.00,,SKC,0.00,VWS V14.01,2013-02-05 00:57:00,
2013-02-04 19:58:00,36.9,24.3,30.04,SW,219,2.0,2.0,60,0.00,,SKC,0.00,VWS V14.01,2013-02-05 00:58:00,
2013-02-04 19:59:00,37.0,24.4,30.04,SW,219,3.0,3.0,60,0.00,,SKC,0.00,VWS V14.01,2013-02-05 00:59:00,
2013-02-04 20:02:00,37.8,24.0,30.04,SW,219,1.0,1.0,57,0.00,,SKC,0.00,VWS V14.01,2013-02-05 01:02:00,
2013-02-04 20:09:00,38.7,25.6,30.03,SW,225,0.0,0.0,59,0.00,,SKC,0.00,VWS V14.01,2013-02-05 01:09:00,
2013-02-04 20:14:00,37.8,24.8,30.03,SW,223,0.0,0.0,59,0.00,,SKC,0.00,VWS V14.01,2013-02-05 01:14:00,
2013-02-04 20:19:00,37.2,25.4,30.04,SW,233,0.0,0.0,62,0.00,,SKC,0.00,VWS V14.01,2013-02-05 01:19:00,
2013-02-04 20:24:00,36.7,25.3,30.04,SW,233,0.0,1.0,63,0.00,,SKC,0.00,VWS V14.01,2013-02-05 01:24:00,
2013-02-04 20:29:00,36.3,24.9,30.04,SW,233,0.0,0.0,63,0.00,,SKC,0.00,VWS V14.01,2013-02-05 01:29:00,
2013-02-04 20:34:00,36.3,24.1,30.04,South,188,5.0,5.0,61,0.00,,SKC,0.00,VWS V14.01,2013-02-05 01:34:00,
2013-02-04 20:39:00,37.3,24.3,30.04,WSW,242,2.0,2.0,59,0.00,,SKC,0.00,VWS V14.01,2013-02-05 01:39:00,
2013-02-04 20:44:00,37.2,25.4,30.04,WSW,242,0.0,0.0,62,0.00,,SKC,0.00,VWS V14.01,2013-02-05 01:44:00,
2013-02-04 20:49:00,37.4,24.8,30.05,North,355,0.0,0.0,60,0.00,,SKC,0.00,VWS V14.01,2013-02-05 01:49:00,
2013-02-04 20:54:00,37.2,25.4,30.05,North,355,0.0,0.0,62,0.00,,SKC,0.00,VWS V14.01,2013-02-05 01:54:00,
2013-02-04 20:59:00,37.0,25.6,30.05,North,355,0.0,0.0,63,0.00,,SKC,0.00,VWS V14.01,2013-02-05 01:59:00,
2013-02-04 21:04:00,37.1,24.5,30.04,NNW,331,0.0,2.0,60,0.00,,SKC,0.00,VWS V14.01,2013-02-05 02:04:00,
2013-02-04 21:09:00,36.9,25.1,30.04,NNW,331,0.0,1.0,62,0.00,,SKC,0.00,VWS V14.01,2013-02-05 02:09:00,
2013-02-04 21:14:00,36.7,25.7,30.04,NNW,331,0.0,0.0,64,0.00,,SKC,0.00,VWS V14.01,2013-02-05 02:14:00,
2013-02-04 21:19:00,36.9,24.7,30.04,NNW,331,1.0,1.0,61,0.00,,SKC,0.00,VWS V14.01,2013-02-05 02:19:00,
2013-02-04 21:24:00,37.6,24.2,30.05,NNW,327,2.0,4.0,58,0.00,,SKC,0.00,VWS V14.01,2013-02-05 02:24:00,
2013-02-04 21:29:00,38.3,24.8,30.05,NNW,328,0.0,2.0,58,0.00,,SKC,0.00,VWS V14.01,2013-02-05 02:29:00,
2013-02-04 21:34:00,38.3,24.4,30.05,ENE,78,3.0,5.0,57,0.00,,SKC,0.00,VWS V14.01,2013-02-05 02:34:00,
2013-02-04 21:39:00,39.6,25.6,30.05,SW,214,1.0,2.0,57,0.00,,SKC,0.00,VWS V14.01,2013-02-05 02:39:00,
2013-02-04 21:44:00,39.9,25.9,30.05,South,175,2.0,2.0,57,0.00,,SKC,0.00,VWS V14.01,2013-02-05 02:44:00,
2013-02-04 21:49:00,39.6,25.6,30.05,SSW,213,2.0,3.0,57,0.00,,SKC,0.00,VWS V14.01,2013-02-05 02:49:00,
2013-02-04 21:54:00,39.6,24.8,30.05,SSW,206,0.0,1.0,55,0.00,,SKC,0.00,VWS V14.01,2013-02-05 02:54:00,
2013-02-04 21:59:00,41.0,24.7,30.05,SW,215,2.0,2.0,52,0.00,,SKC,0.00,VWS V14.01,2013-02-05 02:59:00,
2013-02-04 22:04:00,41.7,24.0,30.05,SSW,207,0.0,0.0,49,0.00,,SKC,0.00,VWS V14.01,2013-02-05 03:04:00,
2013-02-04 22:09:00,42.0,23.2,30.05,WNW,302,1.0,7.0,47,0.00,,SKC,0.00,VWS V14.01,2013-02-05 03:09:00,
2013-02-04 22:14:00,42.6,23.8,30.04,South,171,3.0,5.0,47,0.00,,SKC,0.00,VWS V14.01,2013-02-05 03:14:00,
2013-02-04 22:19:00,42.9,24.6,30.04,South,171,0.0,2.0,48,0.00,,SKC,0.00,VWS V14.01,2013-02-05 03:19:00,
2013-02-04 22:24:00,42.7,24.9,30.04,South,171,0.0,1.0,49,0.00,,SKC,0.00,VWS V14.01,2013-02-05 03:24:00,
2013-02-04 22:29:00,42.4,24.1,30.04,South,171,0.0,0.0,48,0.00,,SKC,0.00,VWS V14.01,2013-02-05 03:29:00,
2013-02-04 22:34:00,41.6,25.3,30.04,West,260,0.0,2.0,52,0.00,,SKC,0.00,VWS V14.01,2013-02-05 03:34:00,
2013-02-04 22:39:00,41.2,24.9,30.04,West,260,1.0,2.0,52,0.00,,SKC,0.00,VWS V14.01,2013-02-05 03:39:00,
2013-02-04 22:44:00,40.9,26.0,30.04,West,260,0.0,0.0,55,0.00,,SKC,0.00,VWS V14.01,2013-02-05 03:44:00,
2013-02-04 22:49:00,40.5,25.6,30.03,West,260,0.0,2.0,55,0.00,,SKC,0.00,VWS V14.01,2013-02-05 03:49:00,
2013-02-04 22:54:00,40.0,26.0,30.03,West,260,0.0,1.0,57,0.00,,SKC,0.00,VWS V14.01,2013-02-05 03:54:00,
2013-02-04 22:59:00,39.7,24.0,30.03,WSW,237,0.0,3.0,53,0.00,,SKC,0.00,VWS V14.01,2013-02-05 03:59:00,
2013-02-04 23:04:00,39.8,24.5,30.02,West,267,0.0,0.0,54,0.00,,SKC,0.00,VWS V14.01,2013-02-05 04:04:00,
2013-02-04 23:09:00,39.8,25.0,30.02,SSW,192,0.0,0.0,55,0.00,,SKC,0.00,VWS V14.01,2013-02-05 04:09:00,
2013-02-04 23:14:00,39.6,25.2,30.02,South,191,0.0,2.0,56,0.00,,SKC,0.00,VWS V14.01,2013-02-05 04:14:00,
2013-02-04 23:19:00,39.4,25.0,30.02,SSW,196,0.0,2.0,56,0.00,,SKC,0.00,VWS V14.01,2013-02-05 04:19:00,
2013-02-04 23:24:00,39.7,25.7,30.02,SSW,196,0.0,0.0,57,0.00,,SKC,0.00,VWS V14.01,2013-02-05 04:24:00,
2013-02-04 23:29:00,39.7,24.9,30.01,SSW,196,2.0,2.0,55,0.00,,SKC,0.00,VWS V14.01,2013-02-05 04:29:00,
2013-02-04 23:34:00,39.7,25.3,30.01,SSW,196,0.0,1.0,56,0.00,,SKC,0.00,VWS V14.01,2013-02-05 04:34:00,
2013-02-04 23:39:00,39.6,25.6,30.01,SSW,195,0.0,4.0,57,0.00,,SKC,0.00,VWS V14.01,2013-02-05 04:39:00,
2013-02-04 23:44:00,39.9,24.6,30.01,SSW,195,2.0,2.0,54,0.00,,SKC,0.00,VWS V14.01,2013-02-05 04:44:00,
2013-02-04 23:49:00,39.8,24.1,30.01,NE,49,3.0,4.0,53,0.00,,SKC,0.00,VWS V14.01,2013-02-05 04:49:00,
2013-02-04 23:54:00,41.1,23.4,30.01,NNE,19,3.0,4.0,49,0.00,,SKC,0.00,VWS V14.01,2013-02-05 04:54:00,
2013-02-04 23:59:00,41.7,24.0,30.01,NNE,16,2.0,3.0,49,0.00,,SKC,0.00,VWS V14.01,2013-02-05 04:59:00,